Time,TemperatureF,DewpointF,PressureIn,WindDirection,WindDirectionDegrees,WindSpeedMPH,WindSpeedGustMPH,Humidity,HourlyPrecipIn,Conditions,Clouds,dailyrainin,SoftwareType,DateUTC
2013-04-01 00:03:00,52.2,46.2,29.89,West,268,0.0,2.0,80,0.00,,CLR,0.00,VWS V14.01,2013-04-01 07:03:00,
2013-04-01 00:04:00,52.0,46.0,29.89,West,268,1.0,2.0,80,0.00,,CLR,0.00,VWS V14.01,2013-04-01 07:04:00,
2013-04-01 00:06:00,52.0,46.4,29.89,West,268,2.0,2.0,81,0.00,,CLR,0.00,VWS V14.01,2013-04-01 07:06:00,
2013-04-01 00:10:00,51.7,46.1,29.89,West,268,2.0,3.0,81,0.00,,CLR,0.00,VWS V14.01,2013-04-01 07:10:00,
2013-04-01 00:11:00,51.7,46.1,29.89,West,268,2.0,3.0,81,0.00,,CLR,0.00,VWS V14.01,2013-04-01 07:11:00,
2013-04-01 00:12:00,51.7,46.1,29.89,West,268,2.0,2.0,81,0.00,,CLR,0.00,VWS V14.01,2013-04-01 07:12:00,
2013-04-01 00:14:00,51.6,46.3,29.89,West,268,2.0,3.0,82,0.00,,CLR,0.00,VWS V14.01,2013-04-01 07:14:00,
2013-04-01 00:16:00,51.6,46.3,29.89,West,268,2.0,3.0,82,0.00,,CLR,0.00,VWS V14.01,2013-04-01 07:16:00,
2013-04-01 00:17:00,51.6,46.3,29.89,West,268,2.0,3.0,82,0.00,,CLR,0.00,VWS V14.01,2013-04-01 07:17:00,
2013-04-01 00:20:00,51.6,46.3,29.89,West,268,0.0,3.0,82,0.00,,CLR,0.00,VWS V14.01,2013-04-01 07:20:00,
2013-04-01 00:22:00,51.6,46.3,29.89,West,268,0.0,0.0,82,0.00,,CLR,0.00,VWS V14.01,2013-04-01 07:22:00,
2013-04-01 00:23:00,51.6,46.3,29.89,West,268,0.0,0.0,82,0.00,,CLR,0.00,VWS V14.01,2013-04-01 07:23:00,
2013-04-01 00:26:00,51.6,46.3,29.89,West,267,0.0,2.0,82,0.00,,CLR,0.00,VWS V14.01,2013-04-01 07:26:00,
2013-04-01 00:27:00,51.6,46.3,29.89,West,267,0.0,0.0,82,0.00,,CLR,0.00,VWS V14.01,2013-04-01 07:27:00,
2013-04-01 00:31:00,51.6,46.0,29.90,West,267,0.0,0.0,81,0.00,,CLR,0.00,VWS V14.01,2013-04-01 07:31:00,
2013-04-01 00:32:00,51.6,46.0,29.90,West,267,0.0,0.0,81,0.00,,CLR,0.00,VWS V14.01,2013-04-01 07:32:00,
2013-04-01 00:36:00,51.6,46.0,29.90,West,267,0.0,0.0,81,0.00,,CLR,0.00,VWS V14.01,2013-04-01 07:36:00,
2013-04-01 00:37:00,51.4,45.8,29.90,West,267,0.0,0.0,81,0.00,,CLR,0.00,VWS V14.01,2013-04-01 07:37:00,
2013-04-01 00:38:00,51.4,45.8,29.90,West,267,0.0,0.0,81,0.00,,CLR,0.00,VWS V14.01,2013-04-01 07:38:00,
2013-04-01 00:41:00,51.4,45.8,29.90,West,267,0.0,0.0,81,0.00,,CLR,0.00,VWS V14.01,2013-04-01 07:41:00,
2013-04-01 00:43:00,51.4,45.8,29.90,West,267,0.0,0.0,81,0.00,,CLR,0.00,VWS V14.01,2013-04-01 07:43:00,
2013-04-01 00:47:00,51.3,45.7,29.91,West,267,1.0,1.0,81,0.00,,CLR,0.00,VWS V14.01,2013-04-01 07:47:00,
2013-04-01 00:48:00,51.3,45.7,29.91,West,267,1.0,1.0,81,0.00,,CLR,0.00,VWS V14.01,2013-04-01 07:48:00,
2013-04-01 00:51:00,51.3,46.0,29.91,West,267,0.0,1.0,82,0.00,,CLR,0.00,VWS V14.01,2013-04-01 07:51:00,
2013-04-01 00:53:00,51.1,45.8,29.91,West,267,0.0,0.0,82,0.00,,CLR,0.00,VWS V14.01,2013-04-01 07:53:00,
2013-04-01 00:54:00,51.1,45.8,29.91,West,267,0.0,0.0,82,0.00,,CLR,0.00,VWS V14.01,2013-04-01 07:54:00,
2013-04-01 00:57:00,51.1,45.8,29.91,West,267,0.0,0.0,82,0.00,,CLR,0.00,VWS V14.01,2013-04-01 07:57:00,
2013-04-01 00:59:00,51.0,45.7,29.91,West,267,1.0,2.0,82,0.00,,CLR,0.00,VWS V14.01,2013-04-01 07:59:00,
2013-04-01 01:02:00,51.0,46.0,29.91,West,267,0.0,0.0,83,0.00,,CLR,0.00,VWS V14.01,2013-04-01 08:02:00,
2013-04-01 01:05:00,50.8,45.8,29.91,West,267,0.0,0.0,83,0.00,,CLR,0.00,VWS V14.01,2013-04-01 08:05:00,
2013-04-01 01:07:00,50.8,45.8,29.91,West,267,1.0,2.0,83,0.00,,CLR,0.00,VWS V14.01,2013-04-01 08:07:00,
2013-04-01 01:08:00,50.7,45.7,29.91,West,267,1.0,2.0,83,0.00,,CLR,0.00,VWS V14.01,2013-04-01 08:08:00,
2013-04-01 01:11:00,50.5,45.8,29.91,West,267,1.0,2.0,84,0.00,,CLR,0.00,VWS V14.01,2013-04-01 08:11:00,
2013-04-01 01:15:00,50.4,45.8,29.91,West,267,0.0,0.0,84,0.00,,CLR,0.00,VWS V14.01,2013-04-01 08:15:00,
2013-04-01 01:17:00,50.4,45.8,29.92,West,267,0.0,0.0,84,0.00,,CLR,0.00,VWS V14.01,2013-04-01 08:17:00,
2013-04-01 01:18:00,50.2,45.6,29.92,West,267,0.0,0.0,84,0.00,,CLR,0.00,VWS V14.01,2013-04-01 08:18:00,
2013-04-01 01:19:00,50.2,45.6,29.92,West,267,0.0,0.0,84,0.00,,CLR,0.00,VWS V14.01,2013-04-01 08:19:00,
2013-04-01 01:22:00,50.1,45.8,29.92,West,267,0.0,0.0,85,0.00,,CLR,0.00,VWS V14.01,2013-04-01 08:22:00,
2013-04-01 01:23:00,50.1,45.8,29.92,West,267,0.0,0.0,85,0.00,,CLR,0.00,VWS V14.01,2013-04-01 08:23:00,
2013-04-01 01:25:00,50.1,45.8,29.92,West,267,0.0,0.0,85,0.00,,CLR,0.00,VWS V14.01,2013-04-01 08:25:00,
2013-04-01 01:26:00,49.9,45.6,29.92,West,267,0.0,0.0,85,0.00,,CLR,0.00,VWS V14.01,2013-04-01 08:26:00,
2013-04-01 01:29:00,49.9,45.6,29.92,West,267,1.0,1.0,85,0.00,,CLR,0.00,VWS V14.01,2013-04-01 08:29:00,
2013-04-01 01:30:00,49.9,45.6,29.92,West,267,0.0,1.0,85,0.00,,CLR,0.00,VWS V14.01,2013-04-01 08:30:00,
2013-04-01 01:32:00,49.8,45.5,29.92,West,267,0.0,0.0,85,0.00,,CLR,0.00,VWS V14.01,2013-04-01 08:32:00,
2013-04-01 01:35:00,49.8,45.5,29.92,West,267,0.0,0.0,85,0.00,,CLR,0.00,VWS V14.01,2013-04-01 08:35:00,
2013-04-01 01:36:00,49.6,45.3,29.92,West,267,0.0,0.0,85,0.00,,CLR,0.00,VWS V14.01,2013-04-01 08:36:00,
2013-04-01 01:38:00,49.6,45.3,29.92,West,267,0.0,0.0,85,0.00,,CLR,0.00,VWS V14.01,2013-04-01 08:38:00,
2013-04-01 01:41:00,49.6,45.3,29.92,West,267,0.0,0.0,85,0.00,,CLR,0.00,VWS V14.01,2013-04-01 08:41:00,
2013-04-01 01:45:00,49.5,45.2,29.92,West,267,1.0,2.0,85,0.00,,CLR,0.00,VWS V14.01,2013-04-01 08:45:00,
2013-04-01 01:47:00,49.5,45.2,29.92,West,267,0.0,2.0,85,0.00,,CLR,0.00,VWS V14.01,2013-04-01 08:47:00,
2013-04-01 01:50:00,49.4,45.1,29.92,West,267,0.0,2.0,85,0.00,,CLR,0.00,VWS V14.01,2013-04-01 08:50:00,
2013-04-01 01:51:00,49.4,45.1,29.92,West,267,0.0,2.0,85,0.00,,CLR,0.00,VWS V14.01,2013-04-01 08:51:00,
2013-04-01 01:55:00,49.2,44.9,29.92,West,267,0.0,0.0,85,0.00,,CLR,0.00,VWS V14.01,2013-04-01 08:55:00,
2013-04-01 01:56:00,49.2,44.9,29.92,West,267,0.0,0.0,85,0.00,,CLR,0.00,VWS V14.01,2013-04-01 08:56:00,
2013-04-01 01:59:00,49.2,44.9,29.92,West,267,0.0,0.0,85,0.00,,CLR,0.00,VWS V14.01,2013-04-01 08:59:00,
2013-04-01 02:01:00,49.2,44.9,29.93,West,267,0.0,0.0,85,0.00,,CLR,0.00,VWS V14.01,2013-04-01 09:01:00,
2013-04-01 02:03:00,49.2,44.9,29.93,West,267,0.0,0.0,85,0.00,,CLR,0.00,VWS V14.01,2013-04-01 09:03:00,
2013-04-01 02:05:00,49.1,44.8,29.93,West,267,0.0,0.0,85,0.00,,CLR,0.00,VWS V14.01,2013-04-01 09:05:00,
2013-04-01 02:08:00,49.1,44.8,29.93,West,267,1.0,2.0,85,0.00,,CLR,0.00,VWS V14.01,2013-04-01 09:08:00,
2013-04-01 02:11:00,49.1,44.8,29.93,West,267,1.0,2.0,85,0.00,,CLR,0.00,VWS V14.01,2013-04-01 09:11:00,
2013-04-01 02:14:00,48.9,44.6,29.93,West,267,1.0,2.0,85,0.00,,CLR,0.00,VWS V14.01,2013-04-01 09:14:00,
2013-04-01 02:16:00,48.9,44.9,29.93,West,267,1.0,2.0,86,0.00,,CLR,0.00,VWS V14.01,2013-04-01 09:16:00,
2013-04-01 02:21:00,48.6,44.6,29.93,West,268,2.0,2.0,86,0.00,,CLR,0.00,VWS V14.01,2013-04-01 09:21:00,
2013-04-01 02:23:00,48.6,44.6,29.93,West,268,0.0,1.0,86,0.00,,CLR,0.00,VWS V14.01,2013-04-01 09:23:00,
2013-04-01 02:27:00,48.5,44.8,29.93,West,268,1.0,1.0,87,0.00,,CLR,0.00,VWS V14.01,2013-04-01 09:27:00,
2013-04-01 02:28:00,48.5,44.8,29.93,West,268,0.0,1.0,87,0.00,,CLR,0.00,VWS V14.01,2013-04-01 09:28:00,
2013-04-01 02:29:00,48.5,44.8,29.93,West,268,0.0,1.0,87,0.00,,CLR,0.00,VWS V14.01,2013-04-01 09:29:00,
2013-04-01 02:32:00,48.3,44.6,29.93,West,268,0.0,1.0,87,0.00,,CLR,0.00,VWS V14.01,2013-04-01 09:32:00,
2013-04-01 02:33:00,48.3,44.6,29.93,West,268,0.0,1.0,87,0.00,,CLR,0.00,VWS V14.01,2013-04-01 09:33:00,
2013-04-01 02:35:00,48.3,44.6,29.93,West,268,0.0,1.0,87,0.00,,CLR,0.00,VWS V14.01,2013-04-01 09:35:00,
2013-04-01 02:37:00,48.3,44.6,29.93,West,268,1.0,2.0,87,0.00,,CLR,0.00,VWS V14.01,2013-04-01 09:37:00,
2013-04-01 02:38:00,48.3,44.6,29.93,West,268,0.0,2.0,87,0.00,,CLR,0.00,VWS V14.01,2013-04-01 09:38:00,
2013-04-01 02:40:00,48.2,44.5,29.93,West,268,0.0,2.0,87,0.00,,CLR,0.00,VWS V14.01,2013-04-01 09:40:00,
2013-04-01 02:41:00,48.2,44.5,29.93,West,268,0.0,0.0,87,0.00,,CLR,0.00,VWS V14.01,2013-04-01 09:41:00,
2013-04-01 02:43:00,48.2,44.5,29.93,West,268,0.0,0.0,87,0.00,,CLR,0.00,VWS V14.01,2013-04-01 09:43:00,
2013-04-01 02:45:00,48.2,44.5,29.93,West,268,1.0,1.0,87,0.00,,CLR,0.00,VWS V14.01,2013-04-01 09:45:00,
2013-04-01 02:47:00,48.2,44.5,29.93,West,268,1.0,2.0,87,0.00,,CLR,0.00,VWS V14.01,2013-04-01 09:47:00,
2013-04-01 02:50:00,48.0,44.3,29.93,West,268,1.0,2.0,87,0.00,,CLR,0.00,VWS V14.01,2013-04-01 09:50:00,
2013-04-01 02:51:00,48.0,44.3,29.93,West,268,1.0,2.0,87,0.00,,CLR,0.00,VWS V14.01,2013-04-01 09:51:00,
2013-04-01 02:56:00,47.9,44.2,29.93,West,268,1.0,2.0,87,0.00,,CLR,0.00,VWS V14.01,2013-04-01 09:56:00,
2013-04-01 02:57:00,47.9,44.2,29.93,West,268,0.0,0.0,87,0.00,,CLR,0.00,VWS V14.01,2013-04-01 09:57:00,
2013-04-01 02:59:00,47.9,44.2,29.93,West,268,0.0,1.0,87,0.00,,CLR,0.00,VWS V14.01,2013-04-01 09:59:00,
2013-04-01 03:01:00,47.7,44.0,29.93,West,268,0.0,1.0,87,0.00,,CLR,0.00,VWS V14.01,2013-04-01 10:01:00,
2013-04-01 03:03:00,47.7,44.0,29.93,West,268,0.0,0.0,87,0.00,,CLR,0.00,VWS V14.01,2013-04-01 10:03:00,
2013-04-01 03:08:00,47.7,44.3,29.93,West,268,0.0,0.0,88,0.00,,CLR,0.00,VWS V14.01,2013-04-01 10:08:00,
2013-04-01 03:09:00,47.7,44.3,29.93,West,268,0.0,0.0,88,0.00,,CLR,0.00,VWS V14.01,2013-04-01 10:09:00,
2013-04-01 03:11:00,47.6,44.2,29.93,West,268,0.0,0.0,88,0.00,,CLR,0.00,VWS V14.01,2013-04-01 10:11:00,
2013-04-01 03:14:00,47.6,44.2,29.93,West,268,0.0,0.0,88,0.00,,CLR,0.00,VWS V14.01,2013-04-01 10:14:00,
2013-04-01 03:16:00,47.4,44.0,29.93,West,268,0.0,0.0,88,0.00,,CLR,0.00,VWS V14.01,2013-04-01 10:16:00,
2013-04-01 03:17:00,47.4,44.0,29.93,West,268,0.0,0.0,88,0.00,,CLR,0.00,VWS V14.01,2013-04-01 10:17:00,
2013-04-01 03:19:00,47.4,44.0,29.93,West,268,0.0,0.0,88,0.00,,CLR,0.00,VWS V14.01,2013-04-01 10:19:00,
2013-04-01 03:21:00,47.3,43.9,29.93,West,268,1.0,2.0,88,0.00,,CLR,0.00,VWS V14.01,2013-04-01 10:21:00,
2013-04-01 03:26:00,47.3,43.9,29.93,West,268,0.0,1.0,88,0.00,,CLR,0.00,VWS V14.01,2013-04-01 10:26:00,
2013-04-01 03:28:00,47.1,43.7,29.93,West,268,0.0,0.0,88,0.00,,CLR,0.00,VWS V14.01,2013-04-01 10:28:00,
2013-04-01 03:30:00,47.1,43.7,29.93,West,268,0.0,1.0,88,0.00,,CLR,0.00,VWS V14.01,2013-04-01 10:30:00,
2013-04-01 03:33:00,47.1,43.7,29.93,West,268,0.0,0.0,88,0.00,,CLR,0.00,VWS V14.01,2013-04-01 10:33:00,
2013-04-01 03:35:00,47.0,43.9,29.93,West,268,0.0,0.0,89,0.00,,CLR,0.00,VWS V14.01,2013-04-01 10:35:00,
2013-04-01 03:36:00,47.0,43.9,29.93,West,268,0.0,0.0,89,0.00,,CLR,0.00,VWS V14.01,2013-04-01 10:36:00,
2013-04-01 03:39:00,47.0,43.9,29.93,West,268,0.0,0.0,89,0.00,,CLR,0.00,VWS V14.01,2013-04-01 10:39:00,
2013-04-01 03:42:00,47.0,43.9,29.93,West,268,0.0,0.0,89,0.00,,CLR,0.00,VWS V14.01,2013-04-01 10:42:00,
2013-04-01 03:46:00,47.0,43.9,29.93,West,268,0.0,0.0,89,0.00,,CLR,0.00,VWS V14.01,2013-04-01 10:46:00,
2013-04-01 03:49:00,47.0,43.9,29.93,West,268,0.0,0.0,89,0.00,,CLR,0.00,VWS V14.01,2013-04-01 10:49:00,
2013-04-01 03:51:00,46.8,43.7,29.93,West,268,0.0,0.0,89,0.00,,CLR,0.00,VWS V14.01,2013-04-01 10:51:00,
2013-04-01 03:53:00,46.8,43.7,29.93,West,268,0.0,0.0,89,0.00,,CLR,0.00,VWS V14.01,2013-04-01 10:53:00,
2013-04-01 03:56:00,46.8,43.7,29.93,SSW,196,0.0,2.0,89,0.00,,CLR,0.00,VWS V14.01,2013-04-01 10:56:00,
2013-04-01 03:58:00,46.7,43.6,29.93,SSW,196,0.0,0.0,89,0.00,,CLR,0.00,VWS V14.01,2013-04-01 10:58:00,
2013-04-01 04:01:00,46.7,43.6,29.93,SSW,196,0.0,0.0,89,0.00,,CLR,0.00,VWS V14.01,2013-04-01 11:01:00,
2013-04-01 04:02:00,46.7,43.6,29.93,SSW,196,0.0,0.0,89,0.00,,CLR,0.00,VWS V14.01,2013-04-01 11:02:00,
2013-04-01 04:04:00,46.5,43.4,29.93,SSW,196,0.0,0.0,89,0.00,,CLR,0.00,VWS V14.01,2013-04-01 11:04:00,
2013-04-01 04:08:00,46.5,43.7,29.93,SSW,196,0.0,1.0,90,0.00,,CLR,0.00,VWS V14.01,2013-04-01 11:08:00,
2013-04-01 04:12:00,46.4,43.6,29.93,SSW,196,0.0,0.0,90,0.00,,CLR,0.00,VWS V14.01,2013-04-01 11:12:00,
2013-04-01 04:13:00,46.2,43.4,29.93,SSW,196,0.0,0.0,90,0.00,,CLR,0.00,VWS V14.01,2013-04-01 11:13:00,
2013-04-01 04:14:00,46.2,43.4,29.93,SSW,196,0.0,0.0,90,0.00,,CLR,0.00,VWS V14.01,2013-04-01 11:14:00,
2013-04-01 04:18:00,46.2,43.4,29.93,SSW,196,0.0,0.0,90,0.00,,CLR,0.00,VWS V14.01,2013-04-01 11:18:00,
2013-04-01 04:19:00,46.1,43.3,29.93,SSW,196,0.0,0.0,90,0.00,,CLR,0.00,VWS V14.01,2013-04-01 11:19:00,
2013-04-01 04:23:00,46.0,43.2,29.93,SSW,196,0.0,0.0,90,0.00,,CLR,0.00,VWS V14.01,2013-04-01 11:23:00,
2013-04-01 04:28:00,45.7,42.9,29.93,SSW,196,0.0,0.0,90,0.00,,CLR,0.00,VWS V14.01,2013-04-01 11:28:00,
2013-04-01 04:29:00,45.7,43.2,29.93,SSW,196,0.0,0.0,91,0.00,,CLR,0.00,VWS V14.01,2013-04-01 11:29:00,
2013-04-01 04:30:00,45.7,43.2,29.93,SSW,196,0.0,0.0,91,0.00,,CLR,0.00,VWS V14.01,2013-04-01 11:30:00,
2013-04-01 04:33:00,45.4,42.9,29.93,SSW,196,0.0,0.0,91,0.00,,CLR,0.00,VWS V14.01,2013-04-01 11:33:00,
2013-04-01 04:36:00,45.2,42.7,29.93,SSW,196,0.0,0.0,91,0.00,,CLR,0.00,VWS V14.01,2013-04-01 11:36:00,
2013-04-01 04:38:00,45.2,42.7,29.93,SSW,196,0.0,0.0,91,0.00,,CLR,0.00,VWS V14.01,2013-04-01 11:38:00,
2013-04-01 04:40:00,45.1,42.6,29.93,SSW,196,0.0,2.0,91,0.00,,CLR,0.00,VWS V14.01,2013-04-01 11:40:00,
2013-04-01 04:41:00,45.1,42.6,29.93,SSW,196,0.0,2.0,91,0.00,,CLR,0.00,VWS V14.01,2013-04-01 11:41:00,
2013-04-01 04:43:00,45.1,42.6,29.93,SSW,196,0.0,0.0,91,0.00,,CLR,0.00,VWS V14.01,2013-04-01 11:43:00,
2013-04-01 04:45:00,44.9,42.4,29.93,SSW,196,0.0,0.0,91,0.00,,CLR,0.00,VWS V14.01,2013-04-01 11:45:00,
2013-04-01 04:46:00,44.9,42.4,29.93,SSW,196,0.0,0.0,91,0.00,,CLR,0.00,VWS V14.01,2013-04-01 11:46:00,
2013-04-01 04:48:00,44.9,42.4,29.93,SSW,196,0.0,0.0,91,0.00,,CLR,0.00,VWS V14.01,2013-04-01 11:48:00,
2013-04-01 04:51:00,44.8,42.3,29.93,SSW,196,0.0,0.0,91,0.00,,CLR,0.00,VWS V14.01,2013-04-01 11:51:00,
2013-04-01 04:52:00,44.8,42.6,29.93,SSW,196,0.0,0.0,92,0.00,,CLR,0.00,VWS V14.01,2013-04-01 11:52:00,
2013-04-01 04:54:00,44.8,42.6,29.93,SSW,196,0.0,0.0,92,0.00,,CLR,0.00,VWS V14.01,2013-04-01 11:54:00,
2013-04-01 04:59:00,44.6,42.4,29.93,SSW,196,0.0,0.0,92,0.00,,CLR,0.00,VWS V14.01,2013-04-01 11:59:00,
2013-04-01 05:01:00,44.6,42.4,29.93,SSW,196,0.0,0.0,92,0.00,,CLR,0.00,VWS V14.01,2013-04-01 12:01:00,
2013-04-01 05:04:00,44.6,42.4,29.93,SSW,196,0.0,0.0,92,0.00,,CLR,0.00,VWS V14.01,2013-04-01 12:04:00,
2013-04-01 05:05:00,44.6,42.4,29.93,SSW,196,0.0,0.0,92,0.00,,CLR,0.00,VWS V14.01,2013-04-01 12:05:00,
2013-04-01 05:10:00,44.5,42.3,29.93,SSW,196,0.0,0.0,92,0.00,,CLR,0.00,VWS V14.01,2013-04-01 12:10:00,
2013-04-01 05:11:00,44.5,42.3,29.93,SSW,196,0.0,0.0,92,0.00,,CLR,0.00,VWS V14.01,2013-04-01 12:11:00,
2013-04-01 05:12:00,44.5,42.3,29.93,SSW,196,0.0,0.0,92,0.00,,CLR,0.00,VWS V14.01,2013-04-01 12:12:00,
2013-04-01 05:16:00,44.5,42.6,29.94,SSW,196,0.0,0.0,93,0.00,,CLR,0.00,VWS V14.01,2013-04-01 12:16:00,
2013-04-01 05:17:00,44.5,42.6,29.94,SSW,196,0.0,0.0,93,0.00,,CLR,0.00,VWS V14.01,2013-04-01 12:17:00,
2013-04-01 05:19:00,44.5,42.6,29.94,SSW,196,0.0,0.0,93,0.00,,CLR,0.00,VWS V14.01,2013-04-01 12:19:00,
2013-04-01 05:20:00,44.5,42.6,29.94,SSW,196,0.0,0.0,93,0.00,,CLR,0.00,VWS V14.01,2013-04-01 12:20:00,
2013-04-01 05:22:00,44.5,42.6,29.94,SSW,196,0.0,0.0,93,0.00,,CLR,0.00,VWS V14.01,2013-04-01 12:22:00,
2013-04-01 05:25:00,44.5,42.6,29.94,SSW,196,0.0,0.0,93,0.00,,CLR,0.00,VWS V14.01,2013-04-01 12:25:00,
2013-04-01 05:27:00,44.5,42.6,29.94,SSW,196,0.0,0.0,93,0.00,,CLR,0.00,VWS V14.01,2013-04-01 12:27:00,
2013-04-01 05:31:00,44.5,42.6,29.94,SSW,196,0.0,0.0,93,0.00,,CLR,0.00,VWS V14.01,2013-04-01 12:31:00,
2013-04-01 05:33:00,44.5,42.6,29.94,SSW,196,0.0,0.0,93,0.00,,CLR,0.00,VWS V14.01,2013-04-01 12:33:00,
2013-04-01 05:34:00,44.3,42.4,29.94,SSW,196,0.0,0.0,93,0.00,,CLR,0.00,VWS V14.01,2013-04-01 12:34:00,
2013-04-01 05:35:00,44.3,42.4,29.94,SSW,196,0.0,0.0,93,0.00,,CLR,0.00,VWS V14.01,2013-04-01 12:35:00,
2013-04-01 05:38:00,44.3,42.4,29.94,SSW,196,0.0,0.0,93,0.00,,CLR,0.00,VWS V14.01,2013-04-01 12:38:00,
2013-04-01 05:39:00,44.2,42.3,29.94,SSW,196,0.0,0.0,93,0.00,,CLR,0.00,VWS V14.01,2013-04-01 12:39:00,
2013-04-01 05:40:00,44.2,42.3,29.94,SSW,196,0.0,0.0,93,0.00,,CLR,0.00,VWS V14.01,2013-04-01 12:40:00,
2013-04-01 05:43:00,44.2,42.3,29.94,SSW,196,0.0,0.0,93,0.00,,CLR,0.00,VWS V14.01,2013-04-01 12:43:00,
2013-04-01 05:44:00,44.2,42.3,29.94,SSW,196,0.0,0.0,93,0.00,,CLR,0.00,VWS V14.01,2013-04-01 12:44:00,
2013-04-01 05:47:00,44.1,42.2,29.94,SSW,196,0.0,0.0,93,0.00,,CLR,0.00,VWS V14.01,2013-04-01 12:47:00,
2013-04-01 05:49:00,44.1,42.2,29.94,SSW,196,0.0,0.0,93,0.00,,CLR,0.00,VWS V14.01,2013-04-01 12:49:00,
2013-04-01 05:54:00,44.1,42.2,29.94,SSW,196,0.0,0.0,93,0.00,,CLR,0.00,VWS V14.01,2013-04-01 12:54:00,
2013-04-01 05:56:00,44.1,42.2,29.94,SSW,196,0.0,0.0,93,0.00,,CLR,0.00,VWS V14.01,2013-04-01 12:56:00,
2013-04-01 05:57:00,44.1,42.2,29.94,SSW,196,0.0,0.0,93,0.00,,CLR,0.00,VWS V14.01,2013-04-01 12:57:00,
2013-04-01 06:01:00,44.1,42.2,29.95,SSW,196,0.0,0.0,93,0.00,,BKN008,0.00,VWS V14.01,2013-04-01 13:01:00,
2013-04-01 06:02:00,44.1,42.2,29.95,SSW,196,0.0,0.0,93,0.00,,BKN008,0.00,VWS V14.01,2013-04-01 13:02:00,
2013-04-01 06:04:00,44.1,42.2,29.95,SSW,196,0.0,0.0,93,0.00,,BKN008,0.00,VWS V14.01,2013-04-01 13:04:00,
2013-04-01 06:06:00,44.1,42.2,29.95,SSW,196,0.0,0.0,93,0.00,,BKN008,0.00,VWS V14.01,2013-04-01 13:06:00,
2013-04-01 06:09:00,44.1,42.2,29.95,SSW,196,0.0,0.0,93,0.00,,BKN008,0.00,VWS V14.01,2013-04-01 13:09:00,
2013-04-01 06:10:00,44.1,42.5,29.95,SSW,196,0.0,0.0,94,0.00,,BKN008,0.00,VWS V14.01,2013-04-01 13:10:00,
2013-04-01 06:15:00,44.1,42.5,29.95,SSW,196,0.0,0.0,94,0.00,,BKN008,0.00,VWS V14.01,2013-04-01 13:15:00,
2013-04-01 06:16:00,44.1,42.5,29.95,SSW,196,0.0,0.0,94,0.00,,BKN008,0.00,VWS V14.01,2013-04-01 13:16:00,
2013-04-01 06:17:00,44.1,42.5,29.95,SSW,196,0.0,0.0,94,0.00,,BKN008,0.00,VWS V14.01,2013-04-01 13:17:00,
2013-04-01 06:21:00,44.1,42.5,29.95,South,188,0.0,0.0,94,0.00,,BKN008,0.00,VWS V14.01,2013-04-01 13:21:00,
2013-04-01 06:22:00,44.1,42.5,29.95,SSW,196,0.0,0.0,94,0.00,,BKN008,0.00,VWS V14.01,2013-04-01 13:22:00,
2013-04-01 06:23:00,44.2,42.6,29.95,SSW,196,0.0,0.0,94,0.00,,BKN008,0.00,VWS V14.01,2013-04-01 13:23:00,
2013-04-01 06:28:00,44.2,42.6,29.95,SSW,196,0.0,1.0,94,0.00,,BKN008,0.00,VWS V14.01,2013-04-01 13:28:00,
2013-04-01 06:29:00,44.2,42.6,29.95,SSW,196,0.0,1.0,94,0.00,,BKN008,0.00,VWS V14.01,2013-04-01 13:29:00,
2013-04-01 06:31:00,44.2,42.6,29.96,SSW,196,0.0,1.0,94,0.00,,BKN008,0.00,VWS V14.01,2013-04-01 13:31:00,
2013-04-01 06:36:00,44.2,42.6,29.96,SSW,196,0.0,0.0,94,0.00,,BKN008,0.00,VWS V14.01,2013-04-01 13:36:00,
2013-04-01 06:37:00,44.2,42.6,29.96,SSW,196,0.0,0.0,94,0.00,,BKN008,0.00,VWS V14.01,2013-04-01 13:37:00,
2013-04-01 06:38:00,44.2,42.6,29.96,SSW,196,0.0,0.0,94,0.00,,BKN008,0.00,VWS V14.01,2013-04-01 13:38:00,
2013-04-01 06:39:00,44.2,42.6,29.96,SSW,196,0.0,0.0,94,0.00,,BKN008,0.00,VWS V14.01,2013-04-01 13:39:00,
2013-04-01 06:42:00,44.2,42.6,29.96,SSW,196,0.0,0.0,94,0.00,,BKN008,0.00,VWS V14.01,2013-04-01 13:42:00,
2013-04-01 06:46:00,44.2,42.9,29.96,SSW,196,0.0,2.0,95,0.00,,BKN008,0.00,VWS V14.01,2013-04-01 13:46:00,
2013-04-01 06:48:00,44.2,42.9,29.96,SSW,196,0.0,0.0,95,0.00,,BKN008,0.00,VWS V14.01,2013-04-01 13:48:00,
2013-04-01 06:53:00,44.2,42.9,29.96,SSW,196,0.0,0.0,95,0.00,,BKN008,0.00,VWS V14.01,2013-04-01 13:53:00,
2013-04-01 06:54:00,44.2,42.9,29.96,SSW,196,0.0,0.0,95,0.00,,BKN008,0.00,VWS V14.01,2013-04-01 13:54:00,
2013-04-01 06:59:00,44.2,42.9,29.96,South,172,0.0,1.0,95,0.00,,BKN008,0.00,VWS V14.01,2013-04-01 13:59:00,
2013-04-01 07:00:00,44.2,42.9,29.96,South,172,0.0,1.0,95,0.00,,OVC008,0.00,VWS V14.01,2013-04-01 14:00:00,
2013-04-01 07:01:00,44.2,42.9,29.96,South,172,0.0,1.0,95,0.00,,OVC008,0.00,VWS V14.01,2013-04-01 14:01:00,
2013-04-01 07:06:00,44.3,43.0,29.96,South,172,1.0,2.0,95,0.00,,OVC008,0.00,VWS V14.01,2013-04-01 14:06:00,
2013-04-01 07:07:00,44.3,43.0,29.96,South,172,1.0,2.0,95,0.00,,OVC008,0.00,VWS V14.01,2013-04-01 14:07:00,
2013-04-01 07:08:00,44.3,43.0,29.96,South,172,2.0,2.0,95,0.00,,OVC008,0.00,VWS V14.01,2013-04-01 14:08:00,
2013-04-01 07:12:00,44.5,43.2,29.96,South,172,0.0,2.0,95,0.00,,OVC008,0.00,VWS V14.01,2013-04-01 14:12:00,
2013-04-01 07:13:00,44.5,43.2,29.96,South,172,0.0,2.0,95,0.00,,OVC008,0.00,VWS V14.01,2013-04-01 14:13:00,
2013-04-01 07:14:00,44.5,43.2,29.96,South,172,1.0,2.0,95,0.00,,OVC008,0.00,VWS V14.01,2013-04-01 14:14:00,
2013-04-01 07:16:00,44.5,43.2,29.97,South,172,1.0,2.0,95,0.00,,OVC008,0.00,VWS V14.01,2013-04-01 14:16:00,
2013-04-01 07:19:00,44.6,43.5,29.97,South,172,1.0,2.0,96,0.00,,OVC008,0.00,VWS V14.01,2013-04-01 14:19:00,
2013-04-01 07:20:00,44.6,43.5,29.97,East,85,3.0,3.0,96,0.00,,OVC008,0.00,VWS V14.01,2013-04-01 14:20:00,
2013-04-01 07:22:00,44.6,43.5,29.97,East,85,2.0,3.0,96,0.00,,OVC008,0.00,VWS V14.01,2013-04-01 14:22:00,
2013-04-01 07:25:00,44.6,43.5,29.97,East,85,2.0,3.0,96,0.00,,OVC008,0.00,VWS V14.01,2013-04-01 14:25:00,
2013-04-01 07:26:00,44.6,43.5,29.97,East,85,1.0,3.0,96,0.00,,OVC008,0.00,VWS V14.01,2013-04-01 14:26:00,
2013-04-01 07:27:00,44.6,43.5,29.97,East,79,1.0,2.0,96,0.00,,OVC008,0.00,VWS V14.01,2013-04-01 14:27:00,
2013-04-01 07:29:00,44.6,43.5,29.97,East,85,2.0,2.0,96,0.00,,OVC008,0.00,VWS V14.01,2013-04-01 14:29:00,
2013-04-01 07:31:00,44.8,43.7,29.97,East,85,1.0,2.0,96,0.00,,OVC008,0.00,VWS V14.01,2013-04-01 14:31:00,
2013-04-01 07:33:00,44.8,43.7,29.97,East,85,1.0,3.0,96,0.00,,OVC008,0.00,VWS V14.01,2013-04-01 14:33:00,
2013-04-01 07:37:00,44.8,43.7,29.97,East,85,0.0,0.0,96,0.00,,OVC008,0.00,VWS V14.01,2013-04-01 14:37:00,
2013-04-01 07:39:00,44.8,43.7,29.97,East,85,1.0,2.0,96,0.00,,OVC008,0.00,VWS V14.01,2013-04-01 14:39:00,
2013-04-01 07:41:00,44.8,43.7,29.97,East,85,2.0,3.0,96,0.00,,OVC008,0.00,VWS V14.01,2013-04-01 14:41:00,
2013-04-01 07:43:00,44.8,43.7,29.97,East,85,3.0,3.0,96,0.00,,OVC008,0.00,VWS V14.01,2013-04-01 14:43:00,
2013-04-01 07:46:00,44.8,43.7,29.97,East,85,2.0,3.0,96,0.00,,OVC008,0.00,VWS V14.01,2013-04-01 14:46:00,
2013-04-01 07:47:00,44.9,43.8,29.97,East,85,3.0,3.0,96,0.00,,OVC008,0.00,VWS V14.01,2013-04-01 14:47:00,
2013-04-01 07:49:00,44.9,43.8,29.97,East,85,1.0,3.0,96,0.00,,OVC008,0.00,VWS V14.01,2013-04-01 14:49:00,
2013-04-01 07:51:00,44.9,43.8,29.97,East,85,2.0,3.0,96,0.00,,OVC008,0.00,VWS V14.01,2013-04-01 14:51:00,
2013-04-01 07:52:00,44.9,43.8,29.97,East,85,2.0,3.0,96,0.00,,OVC008,0.00,VWS V14.01,2013-04-01 14:52:00,
2013-04-01 07:55:00,44.9,43.8,29.97,East,85,0.0,3.0,96,0.00,,OVC008,0.00,VWS V14.01,2013-04-01 14:55:00,
2013-04-01 08:00:00,44.9,43.8,29.97,East,85,1.0,2.0,96,0.00,,OVC008,0.00,VWS V14.01,2013-04-01 15:00:00,
2013-04-01 08:01:00,44.9,43.8,29.98,East,85,1.0,2.0,96,0.00,,OVC008,0.00,VWS V14.01,2013-04-01 15:01:00,
2013-04-01 08:05:00,45.1,44.0,29.98,East,79,1.0,3.0,96,0.00,,OVC008,0.00,VWS V14.01,2013-04-01 15:05:00,
2013-04-01 08:06:00,45.1,44.0,29.98,East,85,1.0,3.0,96,0.00,,OVC008,0.00,VWS V14.01,2013-04-01 15:06:00,
2013-04-01 08:07:00,45.1,44.0,29.98,East,85,1.0,2.0,96,0.00,,OVC008,0.00,VWS V14.01,2013-04-01 15:07:00,
2013-04-01 08:10:00,45.1,44.0,29.98,East,85,1.0,2.0,96,0.00,,OVC008,0.00,VWS V14.01,2013-04-01 15:10:00,
2013-04-01 08:11:00,45.1,44.0,29.98,East,85,1.0,2.0,96,0.00,,OVC008,0.00,VWS V14.01,2013-04-01 15:11:00,
2013-04-01 08:12:00,45.1,44.0,29.98,East,85,1.0,2.0,96,0.00,,OVC008,0.00,VWS V14.01,2013-04-01 15:12:00,
2013-04-01 08:14:00,45.1,44.0,29.98,East,85,2.0,2.0,96,0.00,,OVC008,0.00,VWS V14.01,2013-04-01 15:14:00,
2013-04-01 08:15:00,45.2,44.1,29.98,East,93,1.0,4.0,96,0.00,,OVC008,0.00,VWS V14.01,2013-04-01 15:15:00,
2013-04-01 08:16:00,45.2,44.1,29.99,East,93,2.0,4.0,96,0.00,,OVC008,0.00,VWS V14.01,2013-04-01 15:16:00,
2013-04-01 08:17:00,45.2,44.4,29.99,East,93,2.0,2.0,97,0.00,,OVC008,0.00,VWS V14.01,2013-04-01 15:17:00,
2013-04-01 08:20:00,45.2,44.1,29.99,East,93,2.0,3.0,96,0.00,,OVC008,0.00,VWS V14.01,2013-04-01 15:20:00,
2013-04-01 08:23:00,45.2,44.4,29.99,East,93,2.0,2.0,97,0.00,,OVC008,0.00,VWS V14.01,2013-04-01 15:23:00,
2013-04-01 08:25:00,45.2,44.4,29.99,East,93,1.0,2.0,97,0.00,,OVC008,0.00,VWS V14.01,2013-04-01 15:25:00,
2013-04-01 08:27:00,45.2,44.4,29.99,East,93,1.0,2.0,97,0.00,,OVC008,0.00,VWS V14.01,2013-04-01 15:27:00,
2013-04-01 08:28:00,45.2,44.4,29.99,East,93,3.0,3.0,97,0.00,,OVC008,0.00,VWS V14.01,2013-04-01 15:28:00,
2013-04-01 08:30:00,45.2,44.4,29.99,East,93,2.0,3.0,97,0.00,,OVC008,0.00,VWS V14.01,2013-04-01 15:30:00,
2013-04-01 08:32:00,45.2,44.4,29.99,East,93,0.0,2.0,97,0.00,,OVC008,0.00,VWS V14.01,2013-04-01 15:32:00,
2013-04-01 08:33:00,45.2,44.4,29.99,East,93,2.0,2.0,97,0.00,,OVC008,0.00,VWS V14.01,2013-04-01 15:33:00,
2013-04-01 08:35:00,45.2,44.4,29.99,East,95,0.0,3.0,97,0.00,,OVC008,0.00,VWS V14.01,2013-04-01 15:35:00,
2013-04-01 08:37:00,45.4,44.6,29.99,East,95,0.0,1.0,97,0.00,,OVC008,0.00,VWS V14.01,2013-04-01 15:37:00,
2013-04-01 08:40:00,45.4,44.6,29.99,East,93,2.0,2.0,97,0.00,,OVC008,0.00,VWS V14.01,2013-04-01 15:40:00,
2013-04-01 08:42:00,45.4,44.6,29.99,East,93,1.0,2.0,97,0.00,,OVC008,0.00,VWS V14.01,2013-04-01 15:42:00,
2013-04-01 08:45:00,45.5,44.7,29.99,East,93,3.0,3.0,97,0.00,,OVC008,0.00,VWS V14.01,2013-04-01 15:45:00,
2013-04-01 08:49:00,45.5,44.7,29.99,East,95,2.0,2.0,97,0.00,,OVC008,0.00,VWS V14.01,2013-04-01 15:49:00,
2013-04-01 08:51:00,45.5,44.7,29.99,East,95,1.0,3.0,97,0.00,,OVC008,0.00,VWS V14.01,2013-04-01 15:51:00,
2013-04-01 08:54:00,45.7,44.9,29.99,ESE,109,5.0,5.0,97,0.00,,OVC008,0.00,VWS V14.01,2013-04-01 15:54:00,
2013-04-01 08:55:00,45.7,44.9,29.99,ESE,110,1.0,5.0,97,0.00,,OVC008,0.00,VWS V14.01,2013-04-01 15:55:00,
2013-04-01 08:57:00,45.7,44.9,29.99,ESE,110,1.0,3.0,97,0.00,,OVC008,0.00,VWS V14.01,2013-04-01 15:57:00,
2013-04-01 09:01:00,45.7,44.9,30.00,ESE,103,3.0,3.0,97,0.00,,OVC010,0.00,VWS V14.01,2013-04-01 16:01:00,
2013-04-01 09:02:00,45.7,44.9,30.00,ESE,104,1.0,4.0,97,0.00,,OVC010,0.00,VWS V14.01,2013-04-01 16:02:00,
2013-04-01 09:03:00,45.7,44.9,30.00,ESE,104,2.0,4.0,97,0.00,,OVC010,0.00,VWS V14.01,2013-04-01 16:03:00,
2013-04-01 09:06:00,45.7,44.9,30.00,East,100,1.0,3.0,97,0.00,,OVC010,0.00,VWS V14.01,2013-04-01 16:06:00,
2013-04-01 09:08:00,45.8,45.0,30.00,SE,134,0.0,3.0,97,0.00,,OVC010,0.00,VWS V14.01,2013-04-01 16:08:00,
2013-04-01 09:11:00,45.8,45.0,30.00,SE,136,1.0,2.0,97,0.00,,OVC010,0.00,VWS V14.01,2013-04-01 16:11:00,
2013-04-01 09:14:00,45.8,45.0,30.00,ESE,116,2.0,5.0,97,0.00,,OVC010,0.00,VWS V14.01,2013-04-01 16:14:00,
2013-04-01 09:16:00,45.8,45.0,30.00,ESE,116,3.0,5.0,97,0.00,,OVC010,0.00,VWS V14.01,2013-04-01 16:16:00,
2013-04-01 09:17:00,45.8,45.0,30.00,ESE,116,2.0,3.0,97,0.00,,OVC010,0.00,VWS V14.01,2013-04-01 16:17:00,
2013-04-01 09:21:00,46.0,45.2,30.00,ESE,116,0.0,3.0,97,0.00,,OVC010,0.00,VWS V14.01,2013-04-01 16:21:00,
2013-04-01 09:24:00,46.0,45.2,30.00,ESE,116,2.0,3.0,97,0.00,,OVC010,0.00,VWS V14.01,2013-04-01 16:24:00,
2013-04-01 09:25:00,46.0,45.2,30.00,ESE,116,0.0,3.0,97,0.00,,OVC010,0.00,VWS V14.01,2013-04-01 16:25:00,
2013-04-01 09:29:00,46.1,45.3,30.00,East,90,1.0,4.0,97,0.00,,OVC010,0.00,VWS V14.01,2013-04-01 16:29:00,
2013-04-01 09:31:00,46.1,45.3,30.00,East,90,2.0,4.0,97,0.00,,OVC010,0.00,VWS V14.01,2013-04-01 16:31:00,
2013-04-01 09:34:00,46.0,45.2,30.00,East,89,6.0,6.0,97,0.00,,OVC010,0.00,VWS V14.01,2013-04-01 16:34:00,
2013-04-01 09:37:00,46.0,45.2,30.00,ESE,114,2.0,3.0,97,0.00,,OVC010,0.00,VWS V14.01,2013-04-01 16:37:00,
2013-04-01 09:40:00,46.1,45.3,30.00,ESE,114,0.0,3.0,97,0.00,,OVC010,0.00,VWS V14.01,2013-04-01 16:40:00,
2013-04-01 09:43:00,46.1,45.3,30.00,East,93,2.0,6.0,97,0.00,,OVC010,0.00,VWS V14.01,2013-04-01 16:43:00,
2013-04-01 09:44:00,46.1,45.3,30.00,East,93,0.0,6.0,97,0.00,,OVC010,0.00,VWS V14.01,2013-04-01 16:44:00,
2013-04-01 09:45:00,46.1,45.3,30.01,East,93,0.0,6.0,97,0.00,,OVC010,0.00,VWS V14.01,2013-04-01 16:45:00,
2013-04-01 09:46:00,46.1,45.3,30.01,East,93,0.0,6.0,97,0.00,,OVC010,0.00,VWS V14.01,2013-04-01 16:46:00,
2013-04-01 09:48:00,46.1,45.3,30.01,ESE,109,1.0,5.0,97,0.00,,OVC010,0.00,VWS V14.01,2013-04-01 16:48:00,
2013-04-01 09:50:00,46.2,45.4,30.01,ESE,109,2.0,5.0,97,0.00,,OVC010,0.00,VWS V14.01,2013-04-01 16:50:00,
2013-04-01 09:53:00,46.2,45.4,30.01,ESE,109,2.0,3.0,97,0.00,,OVC010,0.00,VWS V14.01,2013-04-01 16:53:00,
2013-04-01 09:54:00,46.2,45.4,30.01,NE,44,1.0,3.0,97,0.00,,OVC010,0.00,VWS V14.01,2013-04-01 16:54:00,
2013-04-01 09:56:00,46.2,45.4,30.01,ENE,73,1.0,4.0,97,0.00,,OVC010,0.00,VWS V14.01,2013-04-01 16:56:00,
2013-04-01 10:00:00,46.4,45.6,30.01,ENE,75,0.0,3.0,97,0.00,,OVC010,0.00,VWS V14.01,2013-04-01 17:00:00,
2013-04-01 10:01:00,46.4,45.6,30.01,ENE,75,0.0,3.0,97,0.00,,OVC010,0.00,VWS V14.01,2013-04-01 17:01:00,
2013-04-01 10:05:00,46.4,45.6,30.01,SSE,152,0.0,2.0,97,0.00,,OVC010,0.00,VWS V14.01,2013-04-01 17:05:00,
2013-04-01 10:07:00,46.5,45.7,30.01,SSE,151,2.0,2.0,97,0.00,,OVC010,0.00,VWS V14.01,2013-04-01 17:07:00,
2013-04-01 10:08:00,46.5,45.7,30.01,SE,144,2.0,3.0,97,0.00,,OVC010,0.00,VWS V14.01,2013-04-01 17:08:00,
2013-04-01 10:10:00,46.5,45.7,30.01,SE,144,1.0,3.0,97,0.00,,OVC010,0.00,VWS V14.01,2013-04-01 17:10:00,
2013-04-01 10:13:00,46.5,45.7,30.01,SE,144,0.0,1.0,97,0.00,,OVC010,0.00,VWS V14.01,2013-04-01 17:13:00,
2013-04-01 10:14:00,46.5,45.7,30.01,SE,141,1.0,2.0,97,0.00,,OVC010,0.00,VWS V14.01,2013-04-01 17:14:00,
2013-04-01 10:16:00,46.7,45.9,30.01,SE,141,0.0,2.0,97,0.00,,OVC010,0.00,VWS V14.01,2013-04-01 17:16:00,
2013-04-01 10:18:00,46.7,45.9,30.01,SE,143,0.0,1.0,97,0.00,,OVC010,0.00,VWS V14.01,2013-04-01 17:18:00,
2013-04-01 10:19:00,46.7,45.9,30.01,SE,143,0.0,1.0,97,0.00,,OVC010,0.00,VWS V14.01,2013-04-01 17:19:00,
2013-04-01 10:21:00,46.8,46.0,30.01,SE,143,0.0,3.0,97,0.00,,OVC010,0.00,VWS V14.01,2013-04-01 17:21:00,
2013-04-01 10:22:00,46.8,46.0,30.01,SE,143,0.0,0.0,97,0.00,,OVC010,0.00,VWS V14.01,2013-04-01 17:22:00,
2013-04-01 10:23:00,46.8,46.0,30.01,SE,143,0.0,0.0,97,0.00,,OVC010,0.00,VWS V14.01,2013-04-01 17:23:00,
2013-04-01 10:27:00,46.8,46.0,30.01,SE,143,2.0,2.0,97,0.00,,OVC010,0.00,VWS V14.01,2013-04-01 17:27:00,
2013-04-01 10:29:00,46.8,46.0,30.01,ESE,110,3.0,5.0,97,0.00,,OVC010,0.00,VWS V14.01,2013-04-01 17:29:00,
2013-04-01 10:32:00,46.8,46.0,30.01,ESE,110,1.0,1.0,97,0.00,,OVC010,0.00,VWS V14.01,2013-04-01 17:32:00,
2013-04-01 10:35:00,47.0,46.2,30.01,ESE,110,0.0,5.0,97,0.00,,OVC010,0.00,VWS V14.01,2013-04-01 17:35:00,
2013-04-01 10:36:00,47.0,46.2,30.01,ESE,110,0.0,5.0,97,0.00,,OVC010,0.00,VWS V14.01,2013-04-01 17:36:00,
2013-04-01 10:40:00,47.1,46.3,30.01,ESE,110,1.0,2.0,97,0.00,,OVC010,0.00,VWS V14.01,2013-04-01 17:40:00,
2013-04-01 10:41:00,47.1,46.3,30.01,ESE,110,1.0,2.0,97,0.00,,OVC010,0.00,VWS V14.01,2013-04-01 17:41:00,
2013-04-01 10:42:00,47.1,46.3,30.01,ESE,110,3.0,3.0,97,0.00,,OVC010,0.00,VWS V14.01,2013-04-01 17:42:00,
2013-04-01 10:47:00,47.1,46.3,30.02,ESE,103,2.0,3.0,97,0.00,,OVC010,0.00,VWS V14.01,2013-04-01 17:47:00,
2013-04-01 10:48:00,47.3,46.5,30.02,ESE,103,0.0,3.0,97,0.00,,OVC010,0.00,VWS V14.01,2013-04-01 17:48:00,
2013-04-01 10:49:00,47.3,46.5,30.02,ESE,103,0.0,3.0,97,0.00,,OVC010,0.00,VWS V14.01,2013-04-01 17:49:00,
2013-04-01 10:51:00,47.3,46.5,30.02,East,96,0.0,5.0,97,0.00,,OVC010,0.00,VWS V14.01,2013-04-01 17:51:00,
2013-04-01 10:53:00,47.3,46.5,30.02,East,96,1.0,3.0,97,0.00,,OVC010,0.00,VWS V14.01,2013-04-01 17:53:00,
2013-04-01 10:54:00,47.3,46.5,30.02,East,88,1.0,3.0,97,0.00,,OVC010,0.00,VWS V14.01,2013-04-01 17:54:00,
2013-04-01 10:55:00,47.3,46.5,30.02,East,88,2.0,3.0,97,0.00,,OVC010,0.00,VWS V14.01,2013-04-01 17:55:00,
2013-04-01 10:56:00,47.3,46.5,30.02,East,88,1.0,3.0,97,0.00,,OVC010,0.00,VWS V14.01,2013-04-01 17:56:00,
2013-04-01 10:58:00,47.3,46.5,30.02,ESE,103,3.0,3.0,97,0.00,,OVC010,0.00,VWS V14.01,2013-04-01 17:58:00,
2013-04-01 10:59:00,47.3,46.5,30.02,ESE,103,3.0,3.0,97,0.00,,OVC010,0.00,VWS V14.01,2013-04-01 17:59:00,
2013-04-01 11:01:00,47.3,46.5,30.02,ESE,103,2.0,3.0,97,0.00,,OVC010,0.00,VWS V14.01,2013-04-01 18:01:00,
2013-04-01 11:03:00,47.3,46.5,30.02,SE,138,3.0,6.0,97,0.00,,OVC010,0.00,VWS V14.01,2013-04-01 18:03:00,
2013-04-01 11:04:00,47.3,46.5,30.02,SE,124,5.0,6.0,97,0.00,,OVC010,0.00,VWS V14.01,2013-04-01 18:04:00,
2013-04-01 11:09:00,47.4,46.6,30.02,East,97,2.0,5.0,97,0.00,,OVC010,0.00,VWS V14.01,2013-04-01 18:09:00,
2013-04-01 11:10:00,47.4,46.6,30.02,East,97,3.0,5.0,97,0.00,,OVC010,0.00,VWS V14.01,2013-04-01 18:10:00,
2013-04-01 11:11:00,47.4,46.6,30.02,East,99,3.0,3.0,97,0.00,,OVC010,0.00,VWS V14.01,2013-04-01 18:11:00,
2013-04-01 11:14:00,47.6,46.8,30.02,ENE,58,0.0,5.0,97,0.00,,OVC010,0.00,VWS V14.01,2013-04-01 18:14:00,
2013-04-01 11:15:00,47.6,46.8,30.02,ESE,113,2.0,6.0,97,0.00,,OVC010,0.00,VWS V14.01,2013-04-01 18:15:00,
2013-04-01 11:17:00,47.7,46.9,30.02,ESE,104,3.0,3.0,97,0.00,,OVC010,0.00,VWS V14.01,2013-04-01 18:17:00,
2013-04-01 11:21:00,47.7,46.9,30.02,ESE,104,2.0,4.0,97,0.00,,OVC010,0.00,VWS V14.01,2013-04-01 18:21:00,
2013-04-01 11:24:00,47.6,46.8,30.02,ESE,104,3.0,6.0,97,0.00,,OVC010,0.00,VWS V14.01,2013-04-01 18:24:00,
2013-04-01 11:26:00,47.7,46.9,30.02,ESE,102,0.0,6.0,97,0.00,,OVC010,0.00,VWS V14.01,2013-04-01 18:26:00,
2013-04-01 11:31:00,47.7,46.9,30.02,ESE,102,3.0,4.0,97,0.00,,OVC010,0.00,VWS V14.01,2013-04-01 18:31:00,
2013-04-01 11:32:00,47.7,46.9,30.02,ESE,102,1.0,3.0,97,0.00,,OVC010,0.00,VWS V14.01,2013-04-01 18:32:00,
2013-04-01 11:33:00,47.7,46.9,30.02,ESE,102,1.0,3.0,97,0.00,,OVC010,0.00,VWS V14.01,2013-04-01 18:33:00,
2013-04-01 11:37:00,48.2,47.4,30.02,ESE,102,2.0,2.0,97,0.00,,OVC010,0.00,VWS V14.01,2013-04-01 18:37:00,
2013-04-01 11:39:00,48.3,47.5,30.02,ESE,102,1.0,2.0,97,0.00,,OVC010,0.00,VWS V14.01,2013-04-01 18:39:00,
2013-04-01 11:40:00,48.3,47.5,30.02,ESE,102,1.0,2.0,97,0.00,,OVC010,0.00,VWS V14.01,2013-04-01 18:40:00,
2013-04-01 11:44:00,48.6,47.8,30.02,ESE,107,2.0,3.0,97,0.00,,OVC010,0.00,VWS V14.01,2013-04-01 18:44:00,
2013-04-01 11:46:00,48.8,48.0,30.03,ESE,107,1.0,3.0,97,0.00,,OVC010,0.00,VWS V14.01,2013-04-01 18:46:00,
2013-04-01 11:51:00,48.8,48.0,30.03,SE,130,2.0,3.0,97,0.00,,OVC010,0.00,VWS V14.01,2013-04-01 18:51:00,
2013-04-01 11:53:00,48.8,48.0,30.03,SE,130,0.0,2.0,97,0.00,,OVC010,0.00,VWS V14.01,2013-04-01 18:53:00,
2013-04-01 11:55:00,48.9,48.1,30.03,SSW,205,6.0,6.0,97,0.00,,OVC010,0.00,VWS V14.01,2013-04-01 18:55:00,
2013-04-01 12:00:00,49.1,48.3,30.03,SW,219,0.0,3.0,97,0.00,,OVC010,0.00,VWS V14.01,2013-04-01 19:00:00,
2013-04-01 12:01:00,49.1,48.3,30.03,SW,219,0.0,3.0,97,0.00,,OVC012,0.00,VWS V14.01,2013-04-01 19:01:00,
2013-04-01 12:02:00,49.1,48.3,30.03,SSE,152,0.0,3.0,97,0.00,,OVC012,0.00,VWS V14.01,2013-04-01 19:02:00,
2013-04-01 12:05:00,49.4,48.6,30.03,SSE,152,0.0,3.0,97,0.00,,OVC012,0.00,VWS V14.01,2013-04-01 19:05:00,
2013-04-01 12:06:00,49.4,48.6,30.03,SSE,152,0.0,0.0,97,0.00,,OVC012,0.00,VWS V14.01,2013-04-01 19:06:00,
2013-04-01 12:08:00,49.6,48.8,30.03,SSE,152,0.0,0.0,97,0.00,,OVC012,0.00,VWS V14.01,2013-04-01 19:08:00,
2013-04-01 12:10:00,49.8,49.0,30.03,SSE,152,1.0,2.0,97,0.00,,OVC012,0.00,VWS V14.01,2013-04-01 19:10:00,
2013-04-01 12:11:00,49.9,49.1,30.03,South,172,2.0,2.0,97,0.00,,OVC012,0.00,VWS V14.01,2013-04-01 19:11:00,
2013-04-01 12:15:00,50.1,49.0,30.03,South,182,4.0,4.0,96,0.00,,OVC012,0.00,VWS V14.01,2013-04-01 19:15:00,
2013-04-01 12:16:00,50.1,49.0,30.03,South,182,1.0,2.0,96,0.00,,OVC012,0.00,VWS V14.01,2013-04-01 19:16:00,
2013-04-01 12:17:00,50.1,49.0,30.03,South,189,1.0,2.0,96,0.00,,OVC012,0.00,VWS V14.01,2013-04-01 19:17:00,
2013-04-01 12:20:00,50.4,49.3,30.03,East,92,3.0,5.0,96,0.00,,OVC012,0.00,VWS V14.01,2013-04-01 19:20:00,
2013-04-01 12:23:00,50.2,48.8,30.03,ESE,112,3.0,5.0,95,0.00,,OVC012,0.00,VWS V14.01,2013-04-01 19:23:00,
2013-04-01 12:26:00,50.4,49.0,30.03,SE,143,0.0,5.0,95,0.00,,OVC012,0.00,VWS V14.01,2013-04-01 19:26:00,
2013-04-01 12:28:00,50.5,48.8,30.03,SE,143,0.0,1.0,94,0.00,,OVC012,0.00,VWS V14.01,2013-04-01 19:28:00,
2013-04-01 12:32:00,50.7,49.0,30.02,South,176,0.0,2.0,94,0.00,,OVC012,0.00,VWS V14.01,2013-04-01 19:32:00,
2013-04-01 12:33:00,50.8,49.1,30.02,South,176,0.0,2.0,94,0.00,,OVC012,0.00,VWS V14.01,2013-04-01 19:33:00,
2013-04-01 12:35:00,51.1,49.2,30.02,SSW,198,1.0,3.0,93,0.00,,OVC012,0.00,VWS V14.01,2013-04-01 19:35:00,
2013-04-01 12:37:00,51.3,49.3,30.02,WSW,240,2.0,2.0,93,0.00,,OVC012,0.00,VWS V14.01,2013-04-01 19:37:00,
2013-04-01 12:40:00,51.4,49.2,30.02,WSW,240,0.0,3.0,92,0.00,,OVC012,0.00,VWS V14.01,2013-04-01 19:40:00,
2013-04-01 12:41:00,51.6,49.4,30.02,WSW,240,1.0,3.0,92,0.00,,OVC012,0.00,VWS V14.01,2013-04-01 19:41:00,
2013-04-01 12:44:00,51.7,48.9,30.02,SSW,192,1.0,6.0,90,0.00,,OVC012,0.00,VWS V14.01,2013-04-01 19:44:00,
2013-04-01 12:45:00,51.9,49.1,30.02,West,278,3.0,6.0,90,0.00,,OVC012,0.00,VWS V14.01,2013-04-01 19:45:00,
2013-04-01 12:46:00,51.9,49.1,30.02,SE,143,2.0,6.0,90,0.00,,OVC012,0.00,VWS V14.01,2013-04-01 19:46:00,
2013-04-01 12:50:00,52.3,49.2,30.02,SE,143,0.0,2.0,89,0.00,,OVC012,0.00,VWS V14.01,2013-04-01 19:50:00,
2013-04-01 12:51:00,52.5,49.0,30.02,SE,143,0.0,2.0,88,0.00,,OVC012,0.00,VWS V14.01,2013-04-01 19:51:00,
2013-04-01 12:52:00,52.5,48.8,30.02,SE,143,1.0,3.0,87,0.00,,OVC012,0.00,VWS V14.01,2013-04-01 19:52:00,
2013-04-01 12:55:00,52.6,48.5,30.02,SE,143,0.0,3.0,86,0.00,,OVC012,0.00,VWS V14.01,2013-04-01 19:55:00,
2013-04-01 12:57:00,52.8,48.7,30.02,SSW,196,0.0,1.0,86,0.00,,OVC012,0.00,VWS V14.01,2013-04-01 19:57:00,
2013-04-01 13:01:00,53.1,48.7,30.02,South,189,3.0,6.0,85,0.00,,OVC016,0.00,VWS V14.01,2013-04-01 20:01:00,
2013-04-01 13:02:00,53.1,48.4,30.02,WNW,285,2.0,3.0,84,0.00,,OVC016,0.00,VWS V14.01,2013-04-01 20:02:00,
2013-04-01 13:05:00,53.1,48.4,30.02,South,176,0.0,4.0,84,0.00,,OVC016,0.00,VWS V14.01,2013-04-01 20:05:00,
2013-04-01 13:06:00,53.1,48.4,30.02,SSE,155,0.0,4.0,84,0.00,,OVC016,0.00,VWS V14.01,2013-04-01 20:06:00,
2013-04-01 13:07:00,53.1,48.4,30.02,SSE,155,2.0,2.0,84,0.00,,OVC016,0.00,VWS V14.01,2013-04-01 20:07:00,
2013-04-01 13:10:00,53.2,48.2,30.02,SSW,198,1.0,4.0,83,0.00,,OVC016,0.00,VWS V14.01,2013-04-01 20:10:00,
2013-04-01 13:11:00,53.3,48.3,30.02,South,191,2.0,2.0,83,0.00,,OVC016,0.00,VWS V14.01,2013-04-01 20:11:00,
2013-04-01 13:13:00,53.3,48.3,30.02,SSE,160,3.0,5.0,83,0.00,,OVC016,0.00,VWS V14.01,2013-04-01 20:13:00,
2013-04-01 13:15:00,53.3,48.0,30.02,SSE,164,0.0,5.0,82,0.00,,OVC016,0.00,VWS V14.01,2013-04-01 20:15:00,
2013-04-01 13:16:00,53.3,48.0,30.02,SSE,164,0.0,5.0,82,0.00,,OVC016,0.00,VWS V14.01,2013-04-01 20:16:00,
2013-04-01 13:19:00,53.3,48.0,30.02,South,176,2.0,5.0,82,0.00,,OVC016,0.00,VWS V14.01,2013-04-01 20:19:00,
2013-04-01 13:21:00,53.5,48.2,30.02,SW,220,0.0,1.0,82,0.00,,OVC016,0.00,VWS V14.01,2013-04-01 20:21:00,
2013-04-01 13:23:00,53.6,48.2,30.02,SW,220,0.0,1.0,82,0.00,,OVC016,0.00,VWS V14.01,2013-04-01 20:23:00,
2013-04-01 13:24:00,53.8,48.1,30.02,SW,220,0.0,1.0,81,0.00,,OVC016,0.00,VWS V14.01,2013-04-01 20:24:00,
2013-04-01 13:27:00,53.9,48.2,30.02,SW,219,0.0,2.0,81,0.00,,OVC016,0.00,VWS V14.01,2013-04-01 20:27:00,
2013-04-01 13:29:00,54.2,48.5,30.02,SSE,165,0.0,7.0,81,0.00,,OVC016,0.00,VWS V14.01,2013-04-01 20:29:00,
2013-04-01 13:30:00,54.2,48.2,30.02,SSW,192,3.0,7.0,80,0.00,,OVC016,0.00,VWS V14.01,2013-04-01 20:30:00,
2013-04-01 13:33:00,54.4,48.0,30.02,ENE,72,5.0,6.0,79,0.00,,OVC016,0.00,VWS V14.01,2013-04-01 20:33:00,
2013-04-01 13:35:00,54.4,48.0,30.02,ESE,120,2.0,6.0,79,0.00,,OVC016,0.00,VWS V14.01,2013-04-01 20:35:00,
2013-04-01 13:37:00,54.5,48.5,30.02,SW,215,2.0,5.0,80,0.00,,OVC016,0.00,VWS V14.01,2013-04-01 20:37:00,
2013-04-01 13:39:00,54.7,48.3,30.02,SW,227,5.0,5.0,79,0.00,,OVC016,0.00,VWS V14.01,2013-04-01 20:39:00,
2013-04-01 13:40:00,54.8,48.4,30.02,SW,229,0.0,5.0,79,0.00,,OVC016,0.00,VWS V14.01,2013-04-01 20:40:00,
2013-04-01 13:42:00,55.0,48.3,30.02,South,175,3.0,3.0,78,0.00,,OVC016,0.00,VWS V14.01,2013-04-01 20:42:00,
2013-04-01 13:44:00,55.1,48.0,30.02,WSW,239,2.0,6.0,77,0.00,,OVC016,0.00,VWS V14.01,2013-04-01 20:44:00,
2013-04-01 13:45:00,55.3,48.2,30.02,WSW,239,0.0,6.0,77,0.00,,OVC016,0.00,VWS V14.01,2013-04-01 20:45:00,
2013-04-01 13:46:00,55.3,48.2,30.02,South,172,1.0,1.0,77,0.00,,OVC016,0.00,VWS V14.01,2013-04-01 20:46:00,
2013-04-01 13:51:00,55.4,48.0,30.02,SSE,165,2.0,8.0,76,0.00,,OVC016,0.00,VWS V14.01,2013-04-01 20:51:00,
2013-04-01 13:53:00,55.7,48.6,30.02,SSE,157,0.0,6.0,77,0.00,,OVC016,0.00,VWS V14.01,2013-04-01 20:53:00,
2013-04-01 13:56:00,55.7,47.9,30.02,ESE,120,4.0,10.0,75,0.00,,OVC016,0.00,VWS V14.01,2013-04-01 20:56:00,
2013-04-01 13:58:00,55.7,47.9,30.02,ESE,119,0.0,4.0,75,0.00,,OVC016,0.00,VWS V14.01,2013-04-01 20:58:00,
2013-04-01 14:01:00,55.9,48.1,30.02,SSW,193,0.0,6.0,75,0.00,,OVC016,0.00,VWS V14.01,2013-04-01 21:01:00,
2013-04-01 14:03:00,56.0,48.2,30.02,SE,130,1.0,3.0,75,0.00,,OVC016,0.00,VWS V14.01,2013-04-01 21:03:00,
2013-04-01 14:04:00,56.2,48.4,30.02,ESE,107,1.0,5.0,75,0.00,,OVC016,0.00,VWS V14.01,2013-04-01 21:04:00,
2013-04-01 14:06:00,56.5,48.7,30.02,SSW,196,1.0,6.0,75,0.00,,OVC016,0.00,VWS V14.01,2013-04-01 21:06:00,
2013-04-01 14:11:00,56.6,48.1,30.02,SW,222,6.0,7.0,73,0.00,,OVC016,0.00,VWS V14.01,2013-04-01 21:11:00,
2013-04-01 14:12:00,56.6,48.1,30.02,SW,222,3.0,6.0,73,0.00,,OVC016,0.00,VWS V14.01,2013-04-01 21:12:00,
2013-04-01 14:15:00,56.9,48.0,30.02,South,188,2.0,6.0,72,0.00,,OVC016,0.00,VWS V14.01,2013-04-01 21:15:00,
2013-04-01 14:16:00,56.9,48.3,30.02,SW,220,2.0,6.0,73,0.00,,OVC016,0.00,VWS V14.01,2013-04-01 21:16:00,
2013-04-01 14:19:00,57.8,49.2,30.02,East,100,1.0,3.0,73,0.00,,OVC016,0.00,VWS V14.01,2013-04-01 21:19:00,
2013-04-01 14:21:00,58.0,48.3,30.02,SE,143,7.0,7.0,70,0.00,,OVC016,0.00,VWS V14.01,2013-04-01 21:21:00,
2013-04-01 14:22:00,58.0,47.9,30.02,SSE,162,1.0,7.0,69,0.00,,OVC016,0.00,VWS V14.01,2013-04-01 21:22:00,
2013-04-01 14:26:00,58.1,48.8,30.02,SE,133,3.0,7.0,71,0.00,,OVC016,0.00,VWS V14.01,2013-04-01 21:26:00,
2013-04-01 14:28:00,58.3,48.6,30.02,SE,130,3.0,3.0,70,0.00,,OVC016,0.00,VWS V14.01,2013-04-01 21:28:00,
2013-04-01 14:32:00,58.1,48.0,30.02,South,186,1.0,3.0,69,0.00,,OVC016,0.00,VWS V14.01,2013-04-01 21:32:00,
2013-04-01 14:34:00,58.1,48.4,30.02,SE,136,0.0,3.0,70,0.00,,OVC016,0.00,VWS V14.01,2013-04-01 21:34:00,
2013-04-01 14:37:00,58.1,48.0,30.02,SSW,193,4.0,4.0,69,0.00,,OVC016,0.00,VWS V14.01,2013-04-01 21:37:00,
2013-04-01 14:39:00,58.1,48.0,30.02,South,178,1.0,5.0,69,0.00,,OVC016,0.00,VWS V14.01,2013-04-01 21:39:00,
2013-04-01 14:41:00,58.1,48.4,30.02,SE,137,1.0,6.0,70,0.00,,OVC016,0.00,VWS V14.01,2013-04-01 21:41:00,
2013-04-01 14:46:00,58.0,47.9,30.02,ESE,123,4.0,5.0,69,0.00,,OVC016,0.00,VWS V14.01,2013-04-01 21:46:00,
2013-04-01 14:47:00,58.0,47.9,30.02,ESE,123,2.0,4.0,69,0.00,,OVC016,0.00,VWS V14.01,2013-04-01 21:47:00,
2013-04-01 14:50:00,57.8,48.1,30.02,ENE,71,4.0,4.0,70,0.00,,OVC016,0.00,VWS V14.01,2013-04-01 21:50:00,
2013-04-01 14:51:00,57.8,48.1,30.02,East,85,3.0,4.0,70,0.00,,OVC016,0.00,VWS V14.01,2013-04-01 21:51:00,
2013-04-01 14:52:00,57.8,48.1,30.02,East,93,2.0,3.0,70,0.00,,OVC016,0.00,VWS V14.01,2013-04-01 21:52:00,
2013-04-01 14:55:00,57.8,48.1,30.02,South,182,2.0,5.0,70,0.00,,OVC016,0.00,VWS V14.01,2013-04-01 21:55:00,
2013-04-01 14:56:00,58.0,48.3,30.02,SW,216,3.0,5.0,70,0.00,,OVC016,0.00,VWS V14.01,2013-04-01 21:56:00,
2013-04-01 14:59:00,58.0,47.9,30.02,SSW,203,3.0,6.0,69,0.00,,OVC016,0.00,VWS V14.01,2013-04-01 21:59:00,
2013-04-01 15:01:00,58.0,48.3,30.01,WSW,248,6.0,6.0,70,0.00,,OVC024,0.00,VWS V14.01,2013-04-01 22:01:00,
2013-04-01 15:02:00,58.1,48.4,30.01,WSW,246,5.0,7.0,70,0.00,,OVC024,0.00,VWS V14.01,2013-04-01 22:02:00,
2013-04-01 15:05:00,58.1,48.4,30.01,ESE,123,2.0,7.0,70,0.00,,OVC024,0.00,VWS V14.01,2013-04-01 22:05:00,
2013-04-01 15:06:00,58.1,48.4,30.01,SE,128,2.0,7.0,70,0.00,,OVC024,0.00,VWS V14.01,2013-04-01 22:06:00,
2013-04-01 15:07:00,58.0,48.3,30.01,SE,126,3.0,5.0,70,0.00,,OVC024,0.00,VWS V14.01,2013-04-01 22:07:00,
2013-04-01 15:11:00,58.0,48.3,30.01,ESE,119,0.0,7.0,70,0.00,,OVC024,0.00,VWS V14.01,2013-04-01 22:11:00,
2013-04-01 15:16:00,58.3,49.0,30.01,South,182,0.0,3.0,71,0.00,,OVC024,0.00,VWS V14.01,2013-04-01 22:16:00,
2013-04-01 15:17:00,58.4,48.7,30.01,South,182,1.0,1.0,70,0.00,,OVC024,0.00,VWS V14.01,2013-04-01 22:17:00,
2013-04-01 15:20:00,58.7,48.6,30.01,SSW,199,0.0,3.0,69,0.00,,OVC024,0.00,VWS V14.01,2013-04-01 22:20:00,
2013-04-01 15:21:00,58.7,49.0,30.01,SSW,199,5.0,5.0,70,0.00,,OVC024,0.00,VWS V14.01,2013-04-01 22:21:00,
2013-04-01 15:22:00,58.9,48.8,30.01,SSW,199,1.0,5.0,69,0.00,,OVC024,0.00,VWS V14.01,2013-04-01 22:22:00,
2013-04-01 15:26:00,59.2,49.0,30.01,South,186,1.0,8.0,69,0.00,,OVC024,0.00,VWS V14.01,2013-04-01 22:26:00,
2013-04-01 15:27:00,59.3,48.8,30.01,South,186,0.0,2.0,68,0.00,,OVC024,0.00,VWS V14.01,2013-04-01 22:27:00,
2013-04-01 15:30:00,59.3,48.8,30.01,East,96,5.0,6.0,68,0.00,,OVC024,0.00,VWS V14.01,2013-04-01 22:30:00,
2013-04-01 15:32:00,59.3,48.8,30.01,SE,131,1.0,5.0,68,0.00,,OVC024,0.00,VWS V14.01,2013-04-01 22:32:00,
2013-04-01 15:35:00,59.0,48.5,30.01,SE,138,2.0,6.0,68,0.00,,OVC024,0.00,VWS V14.01,2013-04-01 22:35:00,
2013-04-01 15:36:00,59.0,48.5,30.01,SSE,167,2.0,6.0,68,0.00,,OVC024,0.00,VWS V14.01,2013-04-01 22:36:00,
2013-04-01 15:38:00,59.0,48.5,30.01,SSE,158,1.0,6.0,68,0.00,,OVC024,0.00,VWS V14.01,2013-04-01 22:38:00,
2013-04-01 15:40:00,59.2,49.0,30.01,SSE,154,0.0,6.0,69,0.00,,OVC024,0.00,VWS V14.01,2013-04-01 22:40:00,
2013-04-01 15:42:00,59.2,48.7,30.01,NE,56,3.0,5.0,68,0.00,,OVC024,0.00,VWS V14.01,2013-04-01 22:42:00,
2013-04-01 15:43:00,59.2,48.7,30.01,ENE,58,0.0,5.0,68,0.00,,OVC024,0.00,VWS V14.01,2013-04-01 22:43:00,
2013-04-01 15:44:00,59.3,49.1,30.01,SW,220,2.0,5.0,69,0.00,,OVC024,0.00,VWS V14.01,2013-04-01 22:44:00,
2013-04-01 15:46:00,59.6,49.4,30.00,SW,220,1.0,5.0,69,0.00,,OVC024,0.00,VWS V14.01,2013-04-01 22:46:00,
2013-04-01 15:48:00,59.9,49.3,30.00,WSW,240,0.0,2.0,68,0.00,,OVC024,0.00,VWS V14.01,2013-04-01 22:48:00,
2013-04-01 15:51:00,60.4,49.0,30.00,ESE,107,4.0,6.0,66,0.00,,OVC024,0.00,VWS V14.01,2013-04-01 22:51:00,
2013-04-01 15:53:00,60.4,49.0,30.00,ESE,110,2.0,7.0,66,0.00,,OVC024,0.00,VWS V14.01,2013-04-01 22:53:00,
2013-04-01 15:57:00,60.7,48.9,30.00,SE,143,2.0,7.0,65,0.00,,OVC024,0.00,VWS V14.01,2013-04-01 22:57:00,
2013-04-01 15:58:00,60.7,48.5,30.00,SSE,147,3.0,7.0,64,0.00,,OVC024,0.00,VWS V14.01,2013-04-01 22:58:00,
2013-04-01 15:59:00,60.9,49.1,30.00,SSE,147,1.0,7.0,65,0.00,,OVC024,0.00,VWS V14.01,2013-04-01 22:59:00,
2013-04-01 16:00:00,61.0,49.6,30.00,SW,223,5.0,7.0,66,0.00,,OVC024,0.00,VWS V14.01,2013-04-01 23:00:00,
2013-04-01 16:03:00,61.2,48.9,30.00,East,86,1.0,3.0,64,0.00,,OVC026,0.00,VWS V14.01,2013-04-01 23:03:00,
2013-04-01 16:04:00,61.2,48.9,30.00,SSW,196,0.0,3.0,64,0.00,,OVC026,0.00,VWS V14.01,2013-04-01 23:04:00,
2013-04-01 16:06:00,61.3,48.6,30.00,ESE,116,4.0,6.0,63,0.00,,OVC026,0.00,VWS V14.01,2013-04-01 23:06:00,
2013-04-01 16:08:00,61.2,48.9,30.00,SE,140,3.0,5.0,64,0.00,,OVC026,0.00,VWS V14.01,2013-04-01 23:08:00,
2013-04-01 16:09:00,61.0,48.8,30.00,SW,224,3.0,5.0,64,0.00,,OVC026,0.00,VWS V14.01,2013-04-01 23:09:00,
2013-04-01 16:11:00,61.2,48.9,30.00,SW,226,0.0,5.0,64,0.00,,OVC026,0.00,VWS V14.01,2013-04-01 23:11:00,
2013-04-01 16:14:00,61.6,49.3,30.00,WSW,237,1.0,3.0,64,0.00,,OVC026,0.00,VWS V14.01,2013-04-01 23:14:00,
2013-04-01 16:16:00,62.0,49.7,30.00,ESE,123,3.0,6.0,64,0.00,,OVC026,0.00,VWS V14.01,2013-04-01 23:16:00,
2013-04-01 16:18:00,62.1,49.4,30.00,SSE,168,1.0,5.0,63,0.00,,OVC026,0.00,VWS V14.01,2013-04-01 23:18:00,
2013-04-01 16:20:00,62.3,49.1,30.00,South,184,2.0,7.0,62,0.00,,OVC026,0.00,VWS V14.01,2013-04-01 23:20:00,
2013-04-01 16:21:00,62.4,49.2,30.00,WSW,240,5.0,7.0,62,0.00,,OVC026,0.00,VWS V14.01,2013-04-01 23:21:00,
2013-04-01 16:23:00,62.4,48.8,30.00,SSW,198,1.0,7.0,61,0.00,,OVC026,0.00,VWS V14.01,2013-04-01 23:23:00,
2013-04-01 16:26:00,62.4,48.8,30.00,SSW,203,0.0,7.0,61,0.00,,OVC026,0.00,VWS V14.01,2013-04-01 23:26:00,
2013-04-01 16:29:00,62.4,49.2,30.00,SSW,193,3.0,7.0,62,0.00,,OVC026,0.00,VWS V14.01,2013-04-01 23:29:00,
2013-04-01 16:32:00,62.7,49.1,30.00,SSW,200,3.0,5.0,61,0.00,,OVC026,0.00,VWS V14.01,2013-04-01 23:32:00,
2013-04-01 16:36:00,62.9,49.3,30.00,SSW,198,0.0,7.0,61,0.00,,OVC026,0.00,VWS V14.01,2013-04-01 23:36:00,
2013-04-01 16:37:00,62.9,49.7,30.00,South,175,2.0,3.0,62,0.00,,OVC026,0.00,VWS V14.01,2013-04-01 23:37:00,
2013-04-01 16:41:00,62.3,48.7,30.00,SE,131,0.0,8.0,61,0.00,,OVC026,0.00,VWS V14.01,2013-04-01 23:41:00,
2013-04-01 16:42:00,62.3,48.7,30.00,SE,133,2.0,3.0,61,0.00,,OVC026,0.00,VWS V14.01,2013-04-01 23:42:00,
2013-04-01 16:47:00,62.3,49.6,30.00,SSW,212,4.0,5.0,63,0.00,,OVC026,0.00,VWS V14.01,2013-04-01 23:47:00,
2013-04-01 16:48:00,62.4,49.2,30.00,SSW,212,3.0,5.0,62,0.00,,OVC026,0.00,VWS V14.01,2013-04-01 23:48:00,
2013-04-01 16:50:00,62.4,49.2,30.00,ESE,103,3.0,8.0,62,0.00,,OVC026,0.00,VWS V14.01,2013-04-01 23:50:00,
2013-04-01 16:51:00,62.4,48.8,30.00,ESE,103,0.0,8.0,61,0.00,,OVC026,0.00,VWS V14.01,2013-04-01 23:51:00,
2013-04-01 16:52:00,62.4,48.8,30.00,ESE,103,0.0,0.0,61,0.00,,OVC026,0.00,VWS V14.01,2013-04-01 23:52:00,
2013-04-01 16:55:00,62.4,49.2,30.00,SSE,150,0.0,6.0,62,0.00,,OVC026,0.00,VWS V14.01,2013-04-01 23:55:00,
2013-04-01 16:56:00,62.4,48.8,30.00,SE,134,3.0,6.0,61,0.00,,OVC026,0.00,VWS V14.01,2013-04-01 23:56:00,
2013-04-01 17:00:00,62.3,48.7,30.00,SE,137,0.0,5.0,61,0.00,,OVC026,0.00,VWS V14.01,2013-04-02 00:00:00,
2013-04-01 17:05:00,62.3,49.1,30.00,East,100,0.0,3.0,62,0.00,,CLR,0.00,VWS V14.01,2013-04-02 00:05:00,
2013-04-01 17:06:00,62.4,49.2,30.00,East,100,0.0,3.0,62,0.00,,CLR,0.00,VWS V14.01,2013-04-02 00:06:00,
2013-04-01 17:08:00,62.7,49.1,30.00,SSW,195,0.0,2.0,61,0.00,,CLR,0.00,VWS V14.01,2013-04-02 00:08:00,
2013-04-01 17:11:00,62.9,48.8,30.00,ESE,123,1.0,2.0,60,0.00,,CLR,0.00,VWS V14.01,2013-04-02 00:11:00,
2013-04-01 17:12:00,63.1,49.0,30.00,ESE,123,0.0,2.0,60,0.00,,CLR,0.00,VWS V14.01,2013-04-02 00:12:00,
2013-04-01 17:14:00,63.1,48.6,30.00,SSW,192,2.0,7.0,59,0.00,,CLR,0.00,VWS V14.01,2013-04-02 00:14:00,
2013-04-01 17:16:00,63.1,48.6,30.00,SW,215,1.0,7.0,59,0.00,,CLR,0.00,VWS V14.01,2013-04-02 00:16:00,
2013-04-01 17:18:00,63.2,48.7,30.00,WNW,294,0.0,2.0,59,0.00,,CLR,0.00,VWS V14.01,2013-04-02 00:18:00,
2013-04-01 17:22:00,63.4,48.4,30.00,SW,220,0.0,2.0,58,0.00,,CLR,0.00,VWS V14.01,2013-04-02 00:22:00,
2013-04-01 17:24:00,63.4,48.4,30.00,SE,127,5.0,6.0,58,0.00,,CLR,0.00,VWS V14.01,2013-04-02 00:24:00,
2013-04-01 17:26:00,63.2,48.7,30.00,ESE,123,2.0,3.0,59,0.00,,CLR,0.00,VWS V14.01,2013-04-02 00:26:00,
2013-04-01 17:29:00,63.2,49.1,30.00,ESE,123,1.0,3.0,60,0.00,,CLR,0.00,VWS V14.01,2013-04-02 00:29:00,
2013-04-01 17:32:00,63.2,48.7,30.00,ESE,117,3.0,5.0,59,0.00,,CLR,0.00,VWS V14.01,2013-04-02 00:32:00,
2013-04-01 17:34:00,62.9,48.4,30.00,ESE,121,4.0,7.0,59,0.00,,CLR,0.00,VWS V14.01,2013-04-02 00:34:00,
2013-04-01 17:37:00,62.6,48.5,30.00,ESE,119,1.0,3.0,60,0.00,,CLR,0.00,VWS V14.01,2013-04-02 00:37:00,
2013-04-01 17:39:00,62.4,48.3,30.00,ESE,119,0.0,3.0,60,0.00,,CLR,0.00,VWS V14.01,2013-04-02 00:39:00,
2013-04-01 17:41:00,62.4,48.8,30.00,SSE,160,1.0,3.0,61,0.00,,CLR,0.00,VWS V14.01,2013-04-02 00:41:00,
2013-04-01 17:43:00,62.4,48.8,30.00,SSE,158,2.0,3.0,61,0.00,,CLR,0.00,VWS V14.01,2013-04-02 00:43:00,
2013-04-01 17:46:00,62.7,48.6,30.00,SE,130,3.0,6.0,60,0.00,,CLR,0.00,VWS V14.01,2013-04-02 00:46:00,
2013-04-01 17:48:00,62.9,49.3,30.00,SE,130,0.0,3.0,61,0.00,,CLR,0.00,VWS V14.01,2013-04-02 00:48:00,
2013-04-01 17:51:00,63.1,49.0,30.00,ESE,120,2.0,3.0,60,0.00,,CLR,0.00,VWS V14.01,2013-04-02 00:51:00,
2013-04-01 17:52:00,63.1,49.0,30.00,SSW,200,0.0,2.0,60,0.00,,CLR,0.00,VWS V14.01,2013-04-02 00:52:00,
2013-04-01 17:53:00,63.2,49.1,30.00,SE,143,2.0,2.0,60,0.00,,CLR,0.00,VWS V14.01,2013-04-02 00:53:00,
2013-04-01 17:56:00,63.2,49.1,30.00,SE,145,3.0,3.0,60,0.00,,CLR,0.00,VWS V14.01,2013-04-02 00:56:00,
2013-04-01 18:00:00,63.2,49.1,30.00,ESE,109,3.0,5.0,60,0.00,,CLR,0.00,VWS V14.01,2013-04-02 01:00:00,
2013-04-01 18:02:00,63.2,49.1,30.00,SE,134,0.0,1.0,60,0.00,,CLR,0.00,VWS V14.01,2013-04-02 01:02:00,
2013-04-01 18:06:00,63.4,49.3,30.00,SE,134,1.0,2.0,60,0.00,,CLR,0.00,VWS V14.01,2013-04-02 01:06:00,
2013-04-01 18:07:00,63.4,49.3,30.00,SE,134,0.0,2.0,60,0.00,,CLR,0.00,VWS V14.01,2013-04-02 01:07:00,
2013-04-01 18:09:00,63.4,49.3,30.00,SE,134,2.0,2.0,60,0.00,,CLR,0.00,VWS V14.01,2013-04-02 01:09:00,
2013-04-01 18:11:00,63.5,48.9,30.00,SE,134,0.0,3.0,59,0.00,,CLR,0.00,VWS V14.01,2013-04-02 01:11:00,
2013-04-01 18:15:00,63.5,48.9,30.00,SE,134,0.0,2.0,59,0.00,,CLR,0.00,VWS V14.01,2013-04-02 01:15:00,
2013-04-01 18:16:00,63.5,48.9,30.00,SE,134,0.0,2.0,59,0.00,,CLR,0.00,VWS V14.01,2013-04-02 01:16:00,
2013-04-01 18:17:00,63.5,48.9,30.00,SE,127,3.0,3.0,59,0.00,,CLR,0.00,VWS V14.01,2013-04-02 01:17:00,
2013-04-01 18:20:00,63.5,48.9,30.00,SE,127,0.0,3.0,59,0.00,,CLR,0.00,VWS V14.01,2013-04-02 01:20:00,
2013-04-01 18:21:00,63.5,48.9,30.00,SE,127,0.0,3.0,59,0.00,,CLR,0.00,VWS V14.01,2013-04-02 01:21:00,
2013-04-01 18:25:00,63.5,48.9,30.00,ESE,114,2.0,2.0,59,0.00,,CLR,0.00,VWS V14.01,2013-04-02 01:25:00,
2013-04-01 18:27:00,63.5,48.9,30.00,ESE,114,2.0,2.0,59,0.00,,CLR,0.00,VWS V14.01,2013-04-02 01:27:00,
2013-04-01 18:28:00,63.5,48.9,30.00,ESE,114,3.0,3.0,59,0.00,,CLR,0.00,VWS V14.01,2013-04-02 01:28:00,
2013-04-01 18:30:00,63.5,48.9,30.00,ESE,120,2.0,3.0,59,0.00,,CLR,0.00,VWS V14.01,2013-04-02 01:30:00,
2013-04-01 18:32:00,62.6,48.1,30.00,ESE,120,2.0,3.0,59,0.00,,CLR,0.00,VWS V14.01,2013-04-02 01:32:00,
2013-04-01 18:33:00,62.4,47.9,30.00,ESE,120,0.0,3.0,59,0.00,,CLR,0.00,VWS V14.01,2013-04-02 01:33:00,
2013-04-01 18:35:00,62.4,47.9,30.00,ESE,120,2.0,3.0,59,0.00,,CLR,0.00,VWS V14.01,2013-04-02 01:35:00,
2013-04-01 18:36:00,62.4,47.9,30.00,ESE,120,0.0,0.0,59,0.00,,CLR,0.00,VWS V14.01,2013-04-02 01:36:00,
2013-04-01 18:38:00,62.4,48.8,30.00,ESE,120,0.0,0.0,61,0.00,,CLR,0.00,VWS V14.01,2013-04-02 01:38:00,
2013-04-01 18:39:00,62.4,48.8,30.00,ESE,120,0.0,0.0,61,0.00,,CLR,0.00,VWS V14.01,2013-04-02 01:39:00,
2013-04-01 18:43:00,62.6,49.0,30.00,ESE,120,0.0,1.0,61,0.00,,CLR,0.00,VWS V14.01,2013-04-02 01:43:00,
2013-04-01 18:46:00,62.6,49.0,30.01,ESE,120,1.0,1.0,61,0.00,,CLR,0.00,VWS V14.01,2013-04-02 01:46:00,
2013-04-01 18:47:00,62.6,48.5,30.01,ESE,120,0.0,1.0,60,0.00,,CLR,0.00,VWS V14.01,2013-04-02 01:47:00,
2013-04-01 18:51:00,62.6,48.5,30.01,SE,144,2.0,3.0,60,0.00,,CLR,0.00,VWS V14.01,2013-04-02 01:51:00,
2013-04-01 18:53:00,62.6,48.5,30.01,SW,226,3.0,6.0,60,0.00,,CLR,0.00,VWS V14.01,2013-04-02 01:53:00,
2013-04-01 18:57:00,62.4,47.9,30.01,SSW,212,1.0,1.0,59,0.00,,CLR,0.00,VWS V14.01,2013-04-02 01:57:00,
2013-04-01 18:58:00,62.4,47.9,30.01,SW,217,4.0,4.0,59,0.00,,CLR,0.00,VWS V14.01,2013-04-02 01:58:00,
2013-04-01 19:01:00,62.1,47.6,30.01,WSW,239,0.0,5.0,59,0.00,,CLR,0.00,VWS V14.01,2013-04-02 02:01:00,
2013-04-01 19:03:00,62.0,48.0,30.01,WSW,239,3.0,5.0,60,0.00,,CLR,0.00,VWS V14.01,2013-04-02 02:03:00,
2013-04-01 19:06:00,61.6,47.6,30.01,WSW,239,0.0,5.0,60,0.00,,CLR,0.00,VWS V14.01,2013-04-02 02:06:00,
2013-04-01 19:07:00,61.6,47.6,30.01,WSW,247,3.0,3.0,60,0.00,,CLR,0.00,VWS V14.01,2013-04-02 02:07:00,
2013-04-01 19:09:00,61.5,47.9,30.01,WSW,247,2.0,3.0,61,0.00,,CLR,0.00,VWS V14.01,2013-04-02 02:09:00,
2013-04-01 19:12:00,61.2,47.7,30.01,WSW,257,3.0,4.0,61,0.00,,CLR,0.00,VWS V14.01,2013-04-02 02:12:00,
2013-04-01 19:14:00,61.0,47.9,30.01,WSW,258,2.0,5.0,62,0.00,,CLR,0.00,VWS V14.01,2013-04-02 02:14:00,
2013-04-01 19:19:00,60.4,47.8,30.02,WSW,258,0.0,2.0,63,0.00,,CLR,0.00,VWS V14.01,2013-04-02 02:19:00,
2013-04-01 19:21:00,60.2,47.6,30.02,West,263,3.0,3.0,63,0.00,,CLR,0.00,VWS V14.01,2013-04-02 02:21:00,
2013-04-01 19:22:00,60.1,47.5,30.02,West,263,2.0,3.0,63,0.00,,CLR,0.00,VWS V14.01,2013-04-02 02:22:00,
2013-04-01 19:25:00,59.8,47.6,30.02,WNW,296,0.0,3.0,64,0.00,,CLR,0.00,VWS V14.01,2013-04-02 02:25:00,
2013-04-01 19:26:00,59.8,47.6,30.02,WNW,296,0.0,3.0,64,0.00,,CLR,0.00,VWS V14.01,2013-04-02 02:26:00,
2013-04-01 19:27:00,59.6,47.8,30.02,WNW,296,0.0,3.0,65,0.00,,CLR,0.00,VWS V14.01,2013-04-02 02:27:00,
2013-04-01 19:29:00,59.5,47.7,30.02,WNW,296,2.0,3.0,65,0.00,,CLR,0.00,VWS V14.01,2013-04-02 02:29:00,
2013-04-01 19:31:00,59.3,47.5,30.02,WNW,296,3.0,3.0,65,0.00,,CLR,0.00,VWS V14.01,2013-04-02 02:31:00,
2013-04-01 19:32:00,59.2,47.5,30.02,WNW,296,1.0,3.0,65,0.00,,CLR,0.00,VWS V14.01,2013-04-02 02:32:00,
2013-04-01 19:37:00,58.9,47.6,30.02,WNW,295,0.0,0.0,66,0.00,,CLR,0.00,VWS V14.01,2013-04-02 02:37:00,
2013-04-01 19:38:00,58.9,47.6,30.02,WNW,295,0.0,0.0,66,0.00,,CLR,0.00,VWS V14.01,2013-04-02 02:38:00,
2013-04-01 19:39:00,58.9,47.6,30.02,WNW,295,0.0,0.0,66,0.00,,CLR,0.00,VWS V14.01,2013-04-02 02:39:00,
2013-04-01 19:40:00,58.7,47.4,30.02,WNW,295,0.0,0.0,66,0.00,,CLR,0.00,VWS V14.01,2013-04-02 02:40:00,
2013-04-01 19:42:00,58.7,47.4,30.02,WNW,295,0.0,0.0,66,0.00,,CLR,0.00,VWS V14.01,2013-04-02 02:42:00,
2013-04-01 19:47:00,58.4,47.5,30.02,WNW,295,0.0,1.0,67,0.00,,CLR,0.00,VWS V14.01,2013-04-02 02:47:00,
2013-04-01 19:48:00,58.3,47.4,30.02,WNW,295,3.0,3.0,67,0.00,,CLR,0.00,VWS V14.01,2013-04-02 02:48:00,
2013-04-01 19:52:00,58.0,47.1,30.02,WNW,295,0.0,0.0,67,0.00,,CLR,0.00,VWS V14.01,2013-04-02 02:52:00,
2013-04-01 19:55:00,57.6,46.7,30.02,WNW,295,1.0,1.0,67,0.00,,CLR,0.00,VWS V14.01,2013-04-02 02:55:00,
2013-04-01 19:56:00,57.6,46.7,30.02,South,171,1.0,1.0,67,0.00,,CLR,0.00,VWS V14.01,2013-04-02 02:56:00,
2013-04-01 19:57:00,57.5,46.6,30.02,WSW,240,2.0,4.0,67,0.00,,CLR,0.00,VWS V14.01,2013-04-02 02:57:00,
2013-04-01 20:00:00,57.2,46.8,30.02,WSW,240,0.0,4.0,68,0.00,,CLR,0.00,VWS V14.01,2013-04-02 03:00:00,
2013-04-01 20:01:00,57.2,46.8,30.02,WSW,240,0.0,4.0,68,0.00,,CLR,0.00,VWS V14.01,2013-04-02 03:01:00,
2013-04-01 20:03:00,57.0,46.6,30.02,WSW,247,0.0,3.0,68,0.00,,CLR,0.00,VWS V14.01,2013-04-02 03:03:00,
2013-04-01 20:04:00,57.0,46.6,30.02,WSW,247,2.0,3.0,68,0.00,,CLR,0.00,VWS V14.01,2013-04-02 03:04:00,
2013-04-01 20:06:00,56.9,46.5,30.02,WSW,256,1.0,4.0,68,0.00,,CLR,0.00,VWS V14.01,2013-04-02 03:06:00,
2013-04-01 20:09:00,56.7,46.3,30.02,WSW,256,0.0,2.0,68,0.00,,CLR,0.00,VWS V14.01,2013-04-02 03:09:00,
2013-04-01 20:10:00,56.7,46.3,30.02,WSW,256,0.0,2.0,68,0.00,,CLR,0.00,VWS V14.01,2013-04-02 03:10:00,
2013-04-01 20:11:00,56.6,46.2,30.02,WSW,256,0.0,0.0,68,0.00,,CLR,0.00,VWS V14.01,2013-04-02 03:11:00,
2013-04-01 20:15:00,56.5,46.1,30.03,WSW,256,0.0,0.0,68,0.00,,CLR,0.00,VWS V14.01,2013-04-02 03:15:00,
2013-04-01 20:16:00,56.5,46.5,30.03,WSW,256,0.0,0.0,69,0.00,,CLR,0.00,VWS V14.01,2013-04-02 03:16:00,
2013-04-01 20:17:00,56.3,46.3,30.03,WSW,256,0.0,0.0,69,0.00,,CLR,0.00,VWS V14.01,2013-04-02 03:17:00,
2013-04-01 20:21:00,56.2,46.2,30.03,WSW,256,0.0,0.0,69,0.00,,CLR,0.00,VWS V14.01,2013-04-02 03:21:00,
2013-04-01 20:23:00,56.2,46.2,30.03,WSW,256,0.0,0.0,69,0.00,,CLR,0.00,VWS V14.01,2013-04-02 03:23:00,
2013-04-01 20:26:00,55.9,45.9,30.03,WNW,295,0.0,4.0,69,0.00,,CLR,0.00,VWS V14.01,2013-04-02 03:26:00,
2013-04-01 20:28:00,55.9,46.3,30.03,WNW,295,0.0,0.0,70,0.00,,CLR,0.00,VWS V14.01,2013-04-02 03:28:00,
2013-04-01 20:30:00,55.7,46.1,30.03,WNW,295,0.0,1.0,70,0.00,,CLR,0.00,VWS V14.01,2013-04-02 03:30:00,
2013-04-01 20:31:00,55.7,46.1,30.04,WNW,295,0.0,1.0,70,0.00,,CLR,0.00,VWS V14.01,2013-04-02 03:31:00,
2013-04-01 20:36:00,55.4,45.8,30.04,WSW,247,2.0,3.0,70,0.00,,CLR,0.00,VWS V14.01,2013-04-02 03:36:00,
2013-04-01 20:38:00,55.4,45.8,30.04,SW,224,6.0,6.0,70,0.00,,CLR,0.00,VWS V14.01,2013-04-02 03:38:00,
2013-04-01 20:39:00,55.3,45.7,30.04,SW,216,6.0,11.0,70,0.00,,CLR,0.00,VWS V14.01,2013-04-02 03:39:00,
2013-04-01 20:42:00,55.1,45.5,30.04,WSW,246,1.0,4.0,70,0.00,,CLR,0.00,VWS V14.01,2013-04-02 03:42:00,
2013-04-01 20:47:00,54.8,45.6,30.05,WSW,257,2.0,2.0,71,0.00,,CLR,0.00,VWS V14.01,2013-04-02 03:47:00,
2013-04-01 20:48:00,54.8,45.6,30.05,WSW,257,2.0,2.0,71,0.00,,CLR,0.00,VWS V14.01,2013-04-02 03:48:00,
2013-04-01 20:50:00,54.8,45.6,30.05,WSW,240,1.0,5.0,71,0.00,,CLR,0.00,VWS V14.01,2013-04-02 03:50:00,
2013-04-01 20:52:00,54.7,45.5,30.05,WSW,240,0.0,0.0,71,0.00,,CLR,0.00,VWS V14.01,2013-04-02 03:52:00,
2013-04-01 20:53:00,54.7,45.5,30.05,WSW,240,0.0,0.0,71,0.00,,CLR,0.00,VWS V14.01,2013-04-02 03:53:00,
2013-04-01 20:56:00,54.5,45.3,30.05,SW,224,0.0,2.0,71,0.00,,CLR,0.00,VWS V14.01,2013-04-02 03:56:00,
2013-04-01 20:57:00,54.5,45.7,30.05,SW,224,3.0,3.0,72,0.00,,CLR,0.00,VWS V14.01,2013-04-02 03:57:00,
2013-04-01 20:58:00,54.4,45.6,30.05,SW,224,2.0,4.0,72,0.00,,CLR,0.00,VWS V14.01,2013-04-02 03:58:00,
2013-04-01 21:00:00,54.2,45.4,30.06,SW,219,4.0,6.0,72,0.00,,CLR,0.00,VWS V14.01,2013-04-02 04:00:00,
2013-04-01 21:01:00,54.2,45.4,30.06,SW,219,5.0,6.0,72,0.00,,CLR,0.00,VWS V14.01,2013-04-02 04:01:00,
2013-04-01 21:04:00,54.1,45.3,30.06,NNW,330,4.0,6.0,72,0.00,,CLR,0.00,VWS V14.01,2013-04-02 04:04:00,
2013-04-01 21:05:00,53.9,45.5,30.06,West,268,2.0,6.0,73,0.00,,CLR,0.00,VWS V14.01,2013-04-02 04:05:00,
2013-04-01 21:07:00,53.8,45.4,30.06,West,261,1.0,5.0,73,0.00,,CLR,0.00,VWS V14.01,2013-04-02 04:07:00,
2013-04-01 21:09:00,53.8,45.4,30.06,West,263,0.0,5.0,73,0.00,,CLR,0.00,VWS V14.01,2013-04-02 04:09:00,
2013-04-01 21:14:00,53.5,45.1,30.06,West,261,0.0,0.0,73,0.00,,CLR,0.00,VWS V14.01,2013-04-02 04:14:00,
2013-04-01 21:15:00,53.5,45.1,30.06,West,261,0.0,3.0,73,0.00,,CLR,0.00,VWS V14.01,2013-04-02 04:15:00,
2013-04-01 21:18:00,53.3,44.9,30.06,West,261,0.0,0.0,73,0.00,,CLR,0.00,VWS V14.01,2013-04-02 04:18:00,
2013-04-01 21:21:00,53.3,45.2,30.06,West,261,2.0,3.0,74,0.00,,CLR,0.00,VWS V14.01,2013-04-02 04:21:00,
2013-04-01 21:22:00,53.2,45.1,30.06,SW,236,3.0,3.0,74,0.00,,CLR,0.00,VWS V14.01,2013-04-02 04:22:00,
2013-04-01 21:24:00,53.2,45.1,30.06,SW,234,0.0,3.0,74,0.00,,CLR,0.00,VWS V14.01,2013-04-02 04:24:00,
2013-04-01 21:28:00,53.1,45.0,30.06,SW,234,1.0,1.0,74,0.00,,CLR,0.00,VWS V14.01,2013-04-02 04:28:00,
2013-04-01 21:29:00,53.1,45.0,30.06,SW,234,0.0,2.0,74,0.00,,CLR,0.00,VWS V14.01,2013-04-02 04:29:00,
2013-04-01 21:30:00,53.1,45.4,30.06,SW,234,0.0,2.0,75,0.00,,CLR,0.00,VWS V14.01,2013-04-02 04:30:00,
2013-04-01 21:31:00,53.1,45.4,30.07,SW,234,4.0,4.0,75,0.00,,CLR,0.00,VWS V14.01,2013-04-02 04:31:00,
2013-04-01 21:36:00,52.8,45.1,30.07,SW,234,3.0,5.0,75,0.00,,CLR,0.00,VWS V14.01,2013-04-02 04:36:00,
2013-04-01 21:37:00,52.8,45.1,30.07,SW,234,2.0,3.0,75,0.00,,CLR,0.00,VWS V14.01,2013-04-02 04:37:00,
2013-04-01 21:41:00,52.6,45.3,30.07,SSW,212,0.0,5.0,76,0.00,,CLR,0.00,VWS V14.01,2013-04-02 04:41:00,
2013-04-01 21:42:00,52.6,45.3,30.07,SSW,212,0.0,0.0,76,0.00,,CLR,0.00,VWS V14.01,2013-04-02 04:42:00,
2013-04-01 21:43:00,52.6,45.3,30.07,SSW,212,2.0,2.0,76,0.00,,CLR,0.00,VWS V14.01,2013-04-02 04:43:00,
2013-04-01 21:46:00,52.5,45.2,30.07,SW,223,6.0,7.0,76,0.00,,CLR,0.00,VWS V14.01,2013-04-02 04:46:00,
2013-04-01 21:47:00,52.5,45.2,30.07,SW,217,3.0,6.0,76,0.00,,CLR,0.00,VWS V14.01,2013-04-02 04:47:00,
2013-04-01 21:49:00,52.5,45.5,30.07,SW,217,2.0,6.0,77,0.00,,CLR,0.00,VWS V14.01,2013-04-02 04:49:00,
2013-04-01 21:52:00,52.3,45.3,30.07,SW,229,0.0,6.0,77,0.00,,CLR,0.00,VWS V14.01,2013-04-02 04:52:00,
2013-04-01 21:55:00,52.3,45.3,30.07,SW,230,0.0,6.0,77,0.00,,CLR,0.00,VWS V14.01,2013-04-02 04:55:00,
2013-04-01 21:57:00,52.3,45.3,30.07,SW,230,0.0,0.0,77,0.00,,CLR,0.00,VWS V14.01,2013-04-02 04:57:00,
2013-04-01 21:59:00,52.2,45.2,30.07,SW,229,0.0,5.0,77,0.00,,CLR,0.00,VWS V14.01,2013-04-02 04:59:00,
2013-04-01 22:01:00,52.2,45.6,30.08,SW,229,0.0,5.0,78,0.00,,CLR,0.00,VWS V14.01,2013-04-02 05:01:00,
2013-04-01 22:02:00,52.2,45.6,30.08,SW,229,3.0,3.0,78,0.00,,CLR,0.00,VWS V14.01,2013-04-02 05:02:00,
2013-04-01 22:04:00,52.2,45.6,30.08,SW,234,2.0,6.0,78,0.00,,CLR,0.00,VWS V14.01,2013-04-02 05:04:00,
2013-04-01 22:06:00,52.0,45.4,30.08,SW,234,0.0,6.0,78,0.00,,CLR,0.00,VWS V14.01,2013-04-02 05:06:00,
2013-04-01 22:09:00,51.9,45.3,30.08,SW,234,0.0,2.0,78,0.00,,CLR,0.00,VWS V14.01,2013-04-02 05:09:00,
2013-04-01 22:10:00,51.9,45.3,30.08,SW,234,2.0,3.0,78,0.00,,CLR,0.00,VWS V14.01,2013-04-02 05:10:00,
2013-04-01 22:12:00,51.9,45.6,30.08,SW,234,3.0,5.0,79,0.00,,CLR,0.00,VWS V14.01,2013-04-02 05:12:00,
2013-04-01 22:15:00,51.7,45.4,30.08,SW,234,0.0,5.0,79,0.00,,CLR,0.00,VWS V14.01,2013-04-02 05:15:00,
2013-04-01 22:18:00,51.7,45.4,30.08,SW,234,2.0,2.0,79,0.00,,CLR,0.00,VWS V14.01,2013-04-02 05:18:00,
2013-04-01 22:21:00,51.6,45.3,30.08,SW,234,0.0,0.0,79,0.00,,CLR,0.00,VWS V14.01,2013-04-02 05:21:00,
2013-04-01 22:23:00,51.6,45.3,30.08,SW,234,0.0,0.0,79,0.00,,CLR,0.00,VWS V14.01,2013-04-02 05:23:00,
2013-04-01 22:25:00,51.6,45.3,30.08,SW,234,0.0,0.0,79,0.00,,CLR,0.00,VWS V14.01,2013-04-02 05:25:00,
2013-04-01 22:26:00,51.6,45.3,30.08,SW,234,0.0,0.0,79,0.00,,CLR,0.00,VWS V14.01,2013-04-02 05:26:00,
2013-04-01 22:31:00,51.4,45.5,30.08,SW,234,0.0,1.0,80,0.00,,CLR,0.00,VWS V14.01,2013-04-02 05:31:00,
2013-04-01 22:32:00,51.4,45.5,30.08,SW,234,0.0,0.0,80,0.00,,CLR,0.00,VWS V14.01,2013-04-02 05:32:00,
2013-04-01 22:33:00,51.4,45.5,30.08,SW,234,0.0,0.0,80,0.00,,CLR,0.00,VWS V14.01,2013-04-02 05:33:00,
2013-04-01 22:36:00,51.3,45.3,30.08,SW,234,0.0,0.0,80,0.00,,CLR,0.00,VWS V14.01,2013-04-02 05:36:00,
2013-04-01 22:37:00,51.3,45.3,30.08,SW,234,0.0,0.0,80,0.00,,CLR,0.00,VWS V14.01,2013-04-02 05:37:00,
2013-04-01 22:39:00,51.3,45.3,30.08,SW,234,0.0,0.0,80,0.00,,CLR,0.00,VWS V14.01,2013-04-02 05:39:00,
2013-04-01 22:43:00,51.3,45.3,30.08,SW,234,0.0,0.0,80,0.00,,CLR,0.00,VWS V14.01,2013-04-02 05:43:00,
2013-04-01 22:44:00,51.3,45.3,30.08,SW,234,1.0,1.0,80,0.00,,CLR,0.00,VWS V14.01,2013-04-02 05:44:00,
2013-04-01 22:49:00,51.1,45.2,30.08,SW,234,0.0,0.0,80,0.00,,CLR,0.00,VWS V14.01,2013-04-02 05:49:00,
2013-04-01 22:51:00,51.1,45.2,30.08,SW,234,0.0,0.0,80,0.00,,CLR,0.00,VWS V14.01,2013-04-02 05:51:00,
2013-04-01 22:52:00,51.1,45.2,30.08,SW,234,0.0,0.0,80,0.00,,CLR,0.00,VWS V14.01,2013-04-02 05:52:00,
2013-04-01 22:54:00,51.0,45.4,30.08,SW,234,0.0,0.0,81,0.00,,CLR,0.00,VWS V14.01,2013-04-02 05:54:00,
2013-04-01 22:59:00,51.0,45.4,30.08,SW,234,0.0,0.0,81,0.00,,CLR,0.00,VWS V14.01,2013-04-02 05:59:00,
2013-04-01 23:00:00,51.0,45.4,30.08,SW,234,0.0,0.0,81,0.00,,CLR,0.00,VWS V14.01,2013-04-02 06:00:00,
2013-04-01 23:01:00,51.0,45.4,30.08,SW,234,0.0,0.0,81,0.00,,BKN046,0.00,VWS V14.01,2013-04-02 06:01:00,
2013-04-01 23:04:00,51.0,45.4,30.08,SW,234,0.0,0.0,81,0.00,,BKN046,0.00,VWS V14.01,2013-04-02 06:04:00,
2013-04-01 23:06:00,50.8,45.2,30.08,SW,234,0.0,0.0,81,0.00,,BKN046,0.00,VWS V14.01,2013-04-02 06:06:00,
2013-04-01 23:07:00,50.8,45.2,30.08,SW,234,0.0,0.0,81,0.00,,BKN046,0.00,VWS V14.01,2013-04-02 06:07:00,
2013-04-01 23:11:00,50.8,45.2,30.08,SW,234,0.0,0.0,81,0.00,,BKN046,0.00,VWS V14.01,2013-04-02 06:11:00,
2013-04-01 23:12:00,50.8,45.2,30.08,SW,234,0.0,0.0,81,0.00,,BKN046,0.00,VWS V14.01,2013-04-02 06:12:00,
2013-04-01 23:13:00,50.8,45.2,30.08,SW,234,0.0,0.0,81,0.00,,BKN046,0.00,VWS V14.01,2013-04-02 06:13:00,
2013-04-01 23:14:00,50.8,45.2,30.08,SW,234,0.0,0.0,81,0.00,,BKN046,0.00,VWS V14.01,2013-04-02 06:14:00,
2013-04-01 23:18:00,50.7,45.4,30.08,SW,234,0.0,0.0,82,0.00,,BKN046,0.00,VWS V14.01,2013-04-02 06:18:00,
2013-04-01 23:19:00,50.7,45.4,30.08,SW,234,0.0,0.0,82,0.00,,BKN046,0.00,VWS V14.01,2013-04-02 06:19:00,
2013-04-01 23:20:00,50.7,45.4,30.08,SW,234,0.0,0.0,82,0.00,,BKN046,0.00,VWS V14.01,2013-04-02 06:20:00,
2013-04-01 23:25:00,50.5,45.2,30.08,SW,234,0.0,0.0,82,0.00,,BKN046,0.00,VWS V14.01,2013-04-02 06:25:00,
2013-04-01 23:26:00,50.5,45.2,30.08,SW,234,0.0,0.0,82,0.00,,BKN046,0.00,VWS V14.01,2013-04-02 06:26:00,
2013-04-01 23:28:00,50.5,45.2,30.08,SW,234,0.0,0.0,82,0.00,,BKN046,0.00,VWS V14.01,2013-04-02 06:28:00,
2013-04-01 23:31:00,50.5,45.2,30.08,SW,234,0.0,1.0,82,0.00,,BKN046,0.00,VWS V14.01,2013-04-02 06:31:00,
2013-04-01 23:32:00,50.5,45.2,30.08,SW,234,0.0,0.0,82,0.00,,BKN046,0.00,VWS V14.01,2013-04-02 06:32:00,
2013-04-01 23:33:00,50.5,45.5,30.08,SW,234,2.0,2.0,83,0.00,,BKN046,0.00,VWS V14.01,2013-04-02 06:33:00,
2013-04-01 23:35:00,50.4,45.4,30.08,SW,234,4.0,5.0,83,0.00,,BKN046,0.00,VWS V14.01,2013-04-02 06:35:00,
2013-04-01 23:37:00,50.4,45.4,30.08,SW,227,2.0,5.0,83,0.00,,BKN046,0.00,VWS V14.01,2013-04-02 06:37:00,
2013-04-01 23:38:00,50.4,45.4,30.08,SW,217,2.0,5.0,83,0.00,,BKN046,0.00,VWS V14.01,2013-04-02 06:38:00,
2013-04-01 23:41:00,50.4,45.4,30.08,SW,220,2.0,3.0,83,0.00,,BKN046,0.00,VWS V14.01,2013-04-02 06:41:00,
2013-04-01 23:43:00,50.4,45.4,30.08,SW,220,3.0,3.0,83,0.00,,BKN046,0.00,VWS V14.01,2013-04-02 06:43:00,
2013-04-01 23:44:00,50.4,45.8,30.08,SSW,209,5.0,5.0,84,0.00,,BKN046,0.00,VWS V14.01,2013-04-02 06:44:00,
2013-04-01 23:46:00,50.2,45.6,30.09,SSW,210,2.0,5.0,84,0.00,,BKN046,0.00,VWS V14.01,2013-04-02 06:46:00,
2013-04-01 23:50:00,50.2,45.6,30.09,SW,215,0.0,6.0,84,0.00,,BKN046,0.00,VWS V14.01,2013-04-02 06:50:00,
2013-04-01 23:51:00,50.2,45.6,30.09,SW,215,0.0,6.0,84,0.00,,BKN046,0.00,VWS V14.01,2013-04-02 06:51:00,
2013-04-01 23:53:00,50.2,45.6,30.09,SW,216,2.0,4.0,84,0.00,,BKN046,0.00,VWS V14.01,2013-04-02 06:53:00,
2013-04-01 23:57:00,50.1,45.8,30.09,SW,216,0.0,0.0,85,0.00,,BKN046,0.00,VWS V14.01,2013-04-02 06:57:00,
2013-04-01 23:59:00,50.1,45.8,30.09,SW,216,2.0,3.0,85,0.00,,BKN046,0.00,VWS V14.01,2013-04-02 06:59:00,